GFSFLT1_250_spd_000.txt.gz
Wind_Speed
20 23 27 27 27 29 30 31 32 34 35 38 41 45 48 49 46 47 49 50 51 49 50 51 53 57 59 61 64 65 64 62
22 25 29 30 30 32 32 36 38 39 40 43 46 49 51 50 47 46 47 50 54 54 53 54 58 63 66 68 72 74 74 70
27 30 32 34 35 39 39 39 42 42 44 46 49 51 53 54 55 55 56 59 59 60 61 62 66 71 72 77 82 83 82 83
35 39 40 44 43 44 45 46 46 46 50 52 54 56 61 64 65 65 65 65 68 71 70 74 75 75 80 82 87 91 91 88
40 44 49 51 51 52 53 53 57 58 62 65 63 64 68 71 68 68 70 72 73 76 77 78 80 81 83 87 92 94 95 95
39 47 51 53 54 58 60 63 66 66 68 71 72 72 75 76 77 78 79 80 83 86 87 88 88 92 94 94 99 101 101 98
46 51 54 55 58 63 67 69 67 70 70 71 76 78 77 79 81 83 84 87 90 94 98 101 99 101 101 104 105 104 104 92
53 56 57 61 65 68 69 71 71 72 74 78 80 83 86 88 90 92 96 97 96 100 103 105 107 109 110 112 111 110 97 88
57 60 63 67 69 72 75 74 76 78 81 85 87 91 96 99 102 104 106 108 108 108 111 114 117 120 121 116 113 99 91 86
67 70 72 74 76 76 79 82 85 89 90 91 95 99 103 107 108 110 113 115 118 119 122 125 122 120 113 107 98 93 88 85
71 73 74 77 80 82 86 90 91 93 95 98 101 105 109 114 118 121 123 124 124 123 122 118 118 112 106 98 93 88 83 79
73 77 80 82 84 87 91 96 100 103 105 108 111 116 121 124 127 126 124 120 115 115 114 113 109 104 100 95 87 82 78 74
78 84 87 89 92 96 101 104 106 110 113 117 121 125 127 129 126 126 123 116 110 108 105 100 98 93 88 84 80 77 72 70
85 88 91 94 97 101 106 110 110 115 121 126 125 124 124 126 126 120 113 108 104 100 94 91 87 83 83 79 74 70 70 67
90 93 94 98 104 106 106 108 115 121 124 123 123 122 122 115 107 104 102 100 95 90 86 84 82 78 74 73 69 68 65 62
96 98 100 104 110 109 113 118 121 122 119 118 117 114 106 102 99 96 96 93 91 88 85 80 78 77 72 69 67 64 60 58
103 106 110 111 111 115 116 118 117 117 117 114 108 104 99 98 94 87 84 80 79 77 77 76 74 71 68 64 61 58 57 56
109 108 109 111 116 119 120 115 114 111 109 105 101 99 97 96 93 88 84 82 80 78 77 73 71 67 63 59 56 54 56 55
113 114 117 119 121 120 114 112 107 103 98 98 97 97 95 92 88 86 84 81 79 77 76 72 66 61 58 57 54 55 53 50

GFSFLT1_250_spd_003.txt.gz
Wind_Speed
31 32 29 34 34 33 35 37 38 39 39 42 45 46 46 50 50 49 50 53 54 54 52 52 52 54 56 58 60 62 64 64
36 37 33 35 38 38 40 40 39 41 45 48 52 55 56 57 57 53 53 56 58 58 59 61 61 61 62 65 68 68 68 68
38 43 41 40 42 43 46 47 46 46 48 52 57 60 60 61 62 60 60 62 64 65 67 68 68 68 70 73 76 78 78 78
43 43 46 49 51 52 53 55 56 59 59 60 61 62 62 65 67 69 70 71 72 72 75 76 77 79 81 82 83 87 90 89
50 48 49 52 57 59 61 63 65 67 66 65 66 67 68 69 72 75 78 81 82 85 87 88 89 91 91 90 90 91 93 96
50 51 53 55 57 59 62 65 68 68 69 68 70 72 76 78 80 83 85 88 91 93 97 99 100 102 102 101 103 103 104 105
51 52 52 56 60 63 65 67 67 69 72 75 78 80 82 86 90 93 96 98 101 102 103 104 108 109 111 109 107 104 102 101
51 54 57 60 63 65 66 68 72 76 79 83 86 90 95 98 102 104 107 108 109 111 113 114 113 112 109 104 100 99 95 94
55 59 61 64 68 70 73 76 81 84 85 90 94 98 103 108 112 114 116 114 114 116 112 108 105 104 101 97 95 92 90 90
58 62 64 68 73 76 80 84 88 91 93 96 101 103 106 111 114 116 117 116 114 109 107 105 100 94 92 90 87 87 85 83
64 67 71 78 81 83 87 91 95 98 99 102 105 108 110 116 120 121 120 115 111 105 97 93 90 88 86 85 83 81 80 77
70 75 80 84 86 89 92 95 95 97 104 109 112 117 117 117 119 117 117 114 107 96 90 87 87 85 84 84 82 81 80 79
79 82 84 85 89 92 98 101 106 109 114 116 117 119 118 120 115 111 111 104 96 91 88 87 84 83 84 84 80 77 75 73
80 82 85 91 95 101 104 106 111 114 119 119 119 117 121 115 110 107 103 96 92 90 88 85 83 81 80 79 77 76 77 78
82 86 93 100 105 106 109 114 118 120 121 125 123 121 117 107 104 100 97 94 93 91 88 86 85 84 82 79 76 74 74 74
92 96 101 106 110 113 119 123 126 128 131 130 125 120 108 103 98 96 96 95 94 93 90 89 87 81 78 75 73 72 72 71
100 104 108 112 117 122 125 128 131 131 129 127 120 109 104 98 95 92 90 89 87 85 83 81 78 75 72 69 67 65 65 63
108 112 117 123 126 127 129 129 132 128 123 119 110 105 100 97 95 93 91 90 88 84 78 73 70 66 62 61 60 60 58 55
112 117 121 129 132 132 132 135 130 125 117 109 103 99 98 96 94 91 87 85 82 76 70 66 64 61 59 59 57 55 53 50

GFSFLT1_250_spd_006.txt.gz
Wind_Speed
33 34 34 38 42 44 43 43 44 47 47 49 50 53 54 53 52 52 53 54 56 57 57 59 59 61 62 63 64 65 65 63
40 45 45 45 48 48 47 48 50 53 54 55 56 57 60 61 60 61 60 61 62 63 65 67 67 66 68 70 72 73 74 74
43 44 46 47 52 55 54 53 55 55 58 59 58 58 59 62 65 68 69 69 70 71 73 75 77 79 80 82 82 83 83 84
50 48 49 51 54 56 60 58 61 62 60 61 62 63 66 69 72 74 76 79 80 82 84 87 91 93 95 96 97 97 96 95
48 54 53 53 56 58 58 61 61 62 63 64 67 71 72 74 77 80 83 87 90 93 96 97 100 103 105 105 106 104 104 101
56 53 54 54 56 57 58 60 63 65 70 72 73 76 79 82 87 89 91 94 98 102 107 109 108 108 107 106 107 106 102 101
50 49 52 54 57 61 63 66 69 74 77 81 84 88 92 94 97 100 103 104 106 109 111 111 110 109 108 107 103 100 94 94
49 52 55 58 60 62 66 71 76 80 84 87 90 93 95 100 103 103 105 107 108 110 111 110 106 107 106 101 97 92 85 82
53 55 58 61 64 68 72 77 82 84 87 90 94 98 101 102 106 110 110 111 113 112 110 108 106 102 98 96 90 84 77 73
58 60 62 66 71 75 80 82 85 88 90 94 98 103 107 111 113 115 113 114 117 112 110 106 99 94 91 89 84 79 75 72
63 66 69 73 78 83 84 85 87 92 95 99 104 110 111 114 114 115 116 113 113 112 106 98 94 88 85 83 81 77 75 73
72 75 79 82 83 83 84 92 97 98 104 108 113 117 119 121 120 119 117 113 112 105 99 94 90 88 84 83 80 78 75 76
77 78 76 77 82 87 93 98 103 109 111 116 120 125 128 128 125 124 120 114 108 101 98 94 89 86 84 83 80 77 78 79
74 80 85 87 91 96 102 107 111 115 119 122 125 130 133 132 129 121 113 104 102 98 94 93 90 86 82 79 78 77 76 76
85 88 92 96 100 106 110 113 116 122 127 129 131 137 140 127 118 110 104 101 99 97 94 90 88 84 80 77 75 73 72 73
90 95 100 106 109 112 116 121 124 129 133 137 137 137 125 115 107 102 100 99 96 93 89 85 81 77 75 73 71 68 67 65
98 102 105 108 114 118 124 130 134 136 137 137 134 127 114 108 105 102 97 94 90 84 81 77 74 71 67 64 62 61 60 59
104 110 115 120 122 125 130 137 141 140 135 133 121 111 109 108 105 100 94 88 83 79 75 71 68 65 61 59 57 57 57 56
111 117 119 124 129 136 141 142 140 134 129 121 114 109 107 104 99 92 85 80 77 74 69 64 62 60 56 56 55 55 54 51

GFSFLT1_250_spd_009.txt.gz
Wind_Speed
37 39 40 40 44 46 46 48 47 47 50 50 49 50 53 54 54 55 56 58 59 61 62 63 63 63 65 66 69 72 72 72
41 42 43 43 46 49 47 49 51 50 52 51 54 57 58 59 60 63 65 68 70 68 68 66 67 69 70 72 73 75 77 79
41 43 42 44 48 47 48 50 50 52 53 56 60 62 64 65 65 67 68 69 71 73 76 80 81 83 86 88 89 90 89 90
43 44 43 48 49 48 49 53 55 58 60 61 62 64 65 68 69 70 71 74 78 80 82 83 88 92 94 97 99 98 98 97
42 47 50 51 51 52 56 58 60 61 63 66 69 71 71 72 72 74 80 83 84 87 88 89 92 95 96 98 100 101 101 98
50 49 47 48 53 56 58 61 62 65 69 72 74 75 76 76 82 84 86 89 92 94 96 96 96 98 103 101 99 99 102 100
41 44 50 52 54 56 59 65 69 72 76 79 79 79 81 85 88 91 94 97 99 100 101 104 106 109 110 105 101 101 101 100
46 47 49 53 58 63 68 72 74 76 76 77 79 84 91 94 98 100 101 104 106 109 111 111 115 114 113 105 102 101 100 99
48 50 55 59 64 67 69 70 71 76 81 86 91 95 97 102 107 110 113 116 117 119 117 116 115 111 105 99 96 97 96 94
52 55 60 62 66 69 69 73 77 84 89 94 101 104 108 109 113 122 125 124 123 120 116 113 108 103 98 93 90 87 88 88
57 60 60 68 74 75 77 79 85 92 98 101 104 107 115 122 124 130 131 127 122 118 115 109 103 98 92 87 83 82 80 81
61 64 69 76 78 81 83 87 92 97 101 104 114 122 128 129 130 130 127 119 115 111 106 102 98 96 94 91 86 82 80 79
66 71 75 79 84 88 88 93 99 100 106 114 123 129 134 137 131 122 116 113 109 102 98 97 96 96 94 89 85 81 77 75
73 78 81 86 90 91 93 99 105 107 114 122 128 134 143 137 128 119 113 105 100 99 97 97 94 89 85 81 77 73 70 69
78 82 87 91 94 98 102 106 111 117 121 126 135 144 137 126 120 112 105 103 100 98 94 88 83 78 74 71 69 67 65 63
84 89 92 96 98 103 110 115 118 124 129 136 144 134 121 113 109 104 103 102 98 92 84 79 75 72 68 65 63 62 62 60
89 95 99 102 106 110 115 118 122 130 135 140 133 121 112 105 102 101 98 94 89 84 78 73 68 64 60 58 55 55 54 54
96 102 108 110 114 118 122 125 127 136 135 133 120 110 105 101 98 93 89 85 81 76 73 68 64 59 57 55 54 53 53 52
106 112 116 120 122 123 129 132 135 136 130 118 109 106 104 99 91 86 82 77 73 70 66 63 61 59 56 53 51 50 48 46

GFSFLT1_250_spd_012.txt.gz
Wind_Speed
35 36 38 39 38 37 37 40 45 44 42 42 44 47 50 53 54 55 58 60 63 66 68 69 68 69 69 70 70 68 65 65
36 36 38 39 36 39 40 45 44 42 45 49 51 53 54 57 60 62 64 67 69 67 65 70 74 73 73 75 78 78 77 78
36 38 41 41 42 45 44 42 44 48 51 52 55 58 60 64 67 68 69 68 67 67 73 76 78 80 83 87 89 90 90 90
39 42 45 47 43 40 44 48 50 51 54 57 61 64 65 66 66 66 68 70 73 76 78 81 82 84 85 88 93 96 97 98
44 47 43 40 43 46 49 49 51 56 60 61 63 63 64 66 69 71 77 81 83 86 90 93 92 95 100 102 103 103 104 101
42 37 44 45 47 48 48 52 56 59 61 65 67 69 70 73 77 79 83 86 88 96 100 104 106 107 111 110 108 109 107 105
42 45 46 47 48 51 54 59 63 66 70 72 74 78 80 83 87 88 90 93 97 102 108 111 116 119 121 117 111 108 106 102
47 48 49 50 53 57 60 65 69 73 78 78 81 83 87 89 94 96 98 100 106 112 116 120 124 127 125 117 109 105 104 101
46 48 51 56 58 60 64 68 71 74 78 82 85 88 89 96 99 103 108 111 115 118 122 125 128 129 121 112 104 98 97 94
50 53 56 58 59 62 68 71 76 81 84 87 92 95 100 104 106 109 113 121 123 128 131 131 127 119 113 105 98 93 90 89
54 58 59 61 63 69 73 78 82 86 91 96 99 103 106 110 112 118 122 129 128 135 136 132 123 112 105 99 93 93 92 91
59 61 64 64 70 78 83 86 91 94 98 102 106 110 114 119 123 126 131 134 135 135 129 119 108 102 100 99 96 90 85 82
64 66 68 73 80 85 90 93 97 102 107 109 113 117 121 126 130 136 135 135 131 121 113 106 103 101 98 93 88 83 78 74
70 72 76 81 86 89 93 98 103 107 111 116 120 126 130 133 135 137 134 126 118 110 106 102 99 94 88 82 78 75 72 70
73 77 81 87 91 95 100 106 110 115 120 122 127 130 134 136 133 126 118 112 108 105 100 94 89 84 79 76 73 69 66 63
79 82 86 91 97 101 107 112 115 122 126 130 134 133 131 124 117 111 106 104 103 97 89 84 79 74 72 68 65 62 59 57
84 88 94 98 102 107 115 117 124 131 136 133 127 123 115 109 105 104 102 99 94 87 81 76 72 68 65 61 59 56 55 53
91 95 98 102 109 114 121 129 134 133 125 121 116 109 105 104 103 99 95 88 83 79 74 70 66 61 59 55 54 52 49 46
96 99 105 112 116 122 129 136 133 124 118 112 106 104 103 101 97 91 85 80 75 71 67 64 60 56 53 51 51 49 46 43

GFSFLT1_250_spd_015.txt.gz
Wind_Speed
40 41 40 36 37 37 36 38 42 46 45 43 44 47 48 49 51 53 56 58 61 62 63 62 61 60 62 64 62 62 65 68
36 36 35 36 40 44 44 47 43 39 44 47 48 50 52 55 59 60 62 65 64 65 66 65 68 70 70 71 73 76 76 83
33 33 36 42 46 48 42 41 47 48 49 50 52 56 61 64 66 67 69 71 71 72 75 75 75 77 79 78 82 84 86 90
32 36 41 45 43 39 46 48 50 50 52 55 58 62 65 66 67 69 70 71 73 76 79 80 83 84 85 88 91 95 96 99
36 41 43 42 43 49 50 52 52 54 57 60 62 64 66 67 68 72 77 79 81 85 89 91 91 94 95 96 100 102 107 108
42 46 45 45 50 52 52 53 56 60 63 65 66 70 73 76 77 80 83 87 91 94 97 97 100 103 105 108 110 113 116 119
46 48 46 50 55 55 56 58 62 65 67 67 71 77 78 82 86 90 93 97 101 105 107 110 112 115 116 118 121 125 125 128
48 48 51 55 55 57 61 65 67 68 68 72 79 83 87 91 94 98 101 104 107 111 115 118 121 123 126 129 129 130 131 131
49 51 55 55 58 61 66 69 72 73 76 79 86 90 93 97 100 104 108 113 116 119 123 127 130 133 136 136 134 134 126 121
53 55 57 61 62 66 70 73 76 79 82 86 92 95 98 102 106 110 116 119 123 128 134 137 139 140 134 132 127 115 106 100
56 60 64 67 69 72 74 76 81 85 89 92 96 102 105 109 115 119 125 128 133 138 140 138 132 130 123 118 112 105 102 100
58 64 68 72 74 76 79 84 88 92 95 99 104 107 113 118 122 128 132 138 140 140 134 127 120 113 110 108 105 103 99 95
63 67 69 71 75 80 85 88 93 98 101 105 111 116 120 127 131 134 137 139 136 128 119 113 111 109 107 105 100 96 90 85
69 71 74 77 80 85 90 94 101 104 108 113 119 125 130 135 137 138 135 125 119 116 115 112 109 105 100 97 91 85 81 77
73 75 79 82 87 90 98 100 105 112 117 123 129 134 136 135 132 129 123 118 114 111 110 108 102 96 89 87 82 79 75 71
75 79 83 88 93 100 104 109 114 119 125 131 132 134 131 129 126 122 117 112 110 108 103 97 90 86 81 80 75 72 68 65
81 85 90 95 99 106 111 116 124 132 134 136 134 126 123 119 117 114 111 109 106 99 92 86 82 77 73 71 68 68 65 61
84 90 96 104 108 115 122 126 133 136 130 124 120 114 114 114 110 108 106 100 93 87 82 77 73 68 65 65 63 61 59 56
93 101 107 113 120 122 125 132 133 126 120 113 109 109 109 107 104 100 94 87 82 77 72 68 64 61 59 60 57 54 51 47

GFSFLT1_250_spd_018.txt.gz
Wind_Speed
33 33 38 39 39 39 38 44 45 49 44 46 47 50 52 53 54 54 58 58 60 61 62 63 61 62 64 64 66 68 72 71
34 37 36 35 35 39 43 48 48 45 47 52 52 52 51 55 58 60 64 64 66 67 66 68 68 70 72 74 76 78 80 83
37 37 37 37 39 44 45 48 48 51 56 55 56 55 58 62 64 65 64 65 69 71 74 76 78 80 81 83 85 86 87 90
40 39 39 40 43 48 49 51 51 57 57 57 60 63 66 68 69 72 71 71 78 81 84 86 87 89 90 93 97 98 96 98
42 42 43 45 50 53 54 55 56 62 64 64 66 68 73 74 76 75 77 81 86 89 93 95 97 99 100 101 104 107 109 108
41 42 46 49 52 57 58 58 61 64 66 68 69 71 73 75 78 81 84 88 93 98 99 101 105 107 108 111 114 116 118 120
43 45 46 50 56 58 59 64 68 69 66 71 77 77 81 84 88 90 94 97 102 105 108 112 115 115 120 122 124 126 127 130
46 49 53 51 53 59 64 69 72 74 75 76 77 81 85 88 93 96 99 104 109 112 114 120 125 127 129 131 133 133 133 131
50 52 51 54 57 60 60 68 72 75 76 80 82 85 89 94 99 104 108 113 118 123 126 129 133 135 136 134 132 127 123 115
48 51 55 59 63 62 66 71 75 80 81 85 90 94 98 101 109 114 117 122 128 134 138 139 136 132 132 128 123 117 112 108
51 54 58 60 64 67 73 79 80 83 88 92 96 99 104 109 116 123 129 133 136 137 138 137 132 127 120 118 113 111 107 104
53 56 60 66 69 74 79 83 85 89 93 96 102 109 116 122 127 131 133 131 133 135 129 125 120 115 111 107 104 104 101 98
57 63 65 68 73 79 83 84 89 95 99 106 111 120 127 131 134 132 134 133 130 124 120 119 118 116 111 106 105 100 94 88
62 68 73 76 81 86 90 93 95 101 109 115 120 128 132 135 135 135 129 124 121 119 117 115 113 110 105 102 96 87 84 82
67 71 77 82 87 91 95 100 105 110 117 124 129 136 135 138 131 124 119 117 115 115 112 110 106 101 93 91 86 81 78 75
72 76 82 88 92 96 101 108 113 118 127 130 130 131 128 127 120 116 115 112 112 110 105 99 94 87 83 83 80 76 73 70
77 82 86 91 96 101 108 114 120 127 134 132 126 121 116 117 112 110 108 106 102 98 93 86 83 78 76 75 73 68 65 64
82 86 91 96 102 109 115 120 128 135 134 131 127 119 112 110 105 105 103 97 92 88 82 78 76 72 68 68 66 63 61 58
87 93 96 103 110 115 121 126 134 137 134 129 122 115 105 101 100 96 93 87 83 79 74 72 70 67 62 62 62 59 56 51

GFSFLT1_250_spd_021.txt.gz
Wind_Speed
35 37 35 39 38 36 30 30 33 42 48 53 53 51 54 60 60 60 60 60 64 67 69 69 72 71 69 71 73 73 75 76
33 36 38 38 36 38 39 38 41 44 49 55 56 56 59 63 63 63 62 63 66 71 72 73 72 73 76 80 82 82 84 88
36 37 37 39 40 41 43 45 48 51 56 59 59 62 65 68 68 65 67 68 72 74 75 76 78 80 82 85 89 92 93 97
38 37 38 42 43 45 48 51 54 56 58 60 61 66 69 69 72 73 76 78 79 81 84 86 87 90 92 95 96 99 102 106
44 43 43 42 45 50 52 53 56 61 61 61 63 66 69 72 75 77 81 84 86 90 92 93 97 100 103 106 108 110 114 114
41 42 45 47 51 53 56 58 60 59 60 66 68 70 74 79 82 85 87 90 95 99 100 103 106 110 116 120 123 124 124 123
39 39 44 49 54 58 61 63 62 62 64 66 67 72 79 85 88 90 94 98 103 106 110 111 114 120 125 127 128 129 127 123
40 42 45 48 52 55 58 63 67 68 71 73 75 80 85 89 92 96 100 105 109 112 116 122 127 131 133 132 131 127 125 120
42 45 48 50 50 52 56 59 65 71 75 79 84 89 93 96 99 105 110 114 116 121 128 133 132 133 132 128 126 123 116 110
43 46 49 53 56 58 60 64 70 76 81 86 92 95 100 103 107 114 119 122 125 129 137 135 130 127 125 121 117 112 109 108
47 49 53 56 58 61 66 70 76 81 86 90 96 100 104 106 112 118 124 127 128 135 137 132 127 122 118 112 109 107 104 100
52 55 56 59 63 67 72 76 81 85 90 95 100 105 109 114 120 127 131 132 133 134 126 124 120 115 110 107 103 99 94 88
56 57 59 61 65 70 74 79 85 90 95 99 105 112 118 122 128 135 134 133 133 128 122 118 113 110 107 103 99 95 88 82
56 58 61 67 72 78 82 87 92 98 102 107 112 119 125 128 126 124 121 118 117 120 115 112 107 103 98 94 89 84 80 76
56 62 65 71 75 82 87 93 99 102 107 114 120 128 126 126 124 120 115 109 108 109 104 101 95 90 86 83 80 77 74 71
63 66 71 75 80 87 93 100 106 112 117 124 128 130 130 124 121 114 112 104 101 98 93 88 84 79 76 76 75 71 69 67
65 70 77 82 88 94 100 106 113 119 124 127 132 129 129 124 117 115 112 100 95 88 83 78 76 74 71 71 71 68 66 63
71 77 83 89 94 98 103 110 117 122 129 133 133 130 124 117 111 106 100 93 91 85 80 77 74 71 68 67 67 64 61 58
77 84 90 93 98 104 109 116 123 128 132 132 127 127 118 109 106 102 93 89 85 82 77 74 71 68 65 62 59 57 56 53

GFSFLT1_250_spd_024.txt.gz
Wind_Speed
43 42 44 46 46 46 43 42 43 48 48 51 54 57 59 62 64 65 64 64 64 66 67 66 67 69 71 75 78 78 77 77
39 41 44 42 42 43 46 47 49 51 54 54 56 60 63 65 67 69 66 66 66 67 68 70 73 76 79 81 82 84 86 86
38 40 41 44 47 45 46 48 50 51 52 56 62 65 67 68 70 69 70 72 74 77 77 79 83 85 88 89 89 90 93 93
37 37 39 41 46 50 48 47 46 50 56 61 65 68 72 73 73 75 78 79 80 82 84 88 90 90 91 94 95 98 101 103
37 39 41 42 45 46 50 51 53 55 59 64 67 68 69 72 75 79 83 84 87 90 92 94 97 100 103 105 107 109 112 113
42 43 44 48 46 47 49 52 55 59 61 63 66 68 70 74 80 86 91 95 98 100 102 105 107 111 114 117 120 122 125 127
44 46 50 48 48 51 52 51 54 56 59 62 66 69 74 78 84 89 93 97 101 103 106 110 114 119 123 128 131 133 133 132
40 44 44 43 49 52 55 55 57 60 62 66 70 74 78 82 87 92 98 103 107 111 115 118 123 128 133 135 134 131 132 131
41 43 45 46 48 51 55 59 63 65 69 73 76 79 84 88 94 100 104 110 114 118 121 126 131 132 129 127 126 127 126 122
43 45 48 51 53 55 57 61 64 67 70 74 78 83 89 94 100 107 112 118 121 124 126 126 126 124 125 125 122 119 116 111
46 50 52 53 56 59 61 63 65 69 74 79 84 90 96 102 107 113 117 122 125 126 127 125 125 127 125 121 116 112 105 99
46 47 50 54 58 62 63 66 70 75 81 85 90 97 103 108 112 116 121 127 129 128 123 121 121 120 118 112 108 103 99 93
49 52 55 56 58 61 66 71 75 81 87 93 99 104 108 113 118 122 127 128 128 126 120 119 115 110 104 102 97 93 88 83
52 54 56 58 62 66 71 76 82 88 95 100 104 110 117 121 124 129 131 126 120 123 117 109 104 95 92 90 86 82 78 74
59 60 60 63 66 70 75 80 87 94 101 106 113 117 122 127 129 125 122 120 116 113 109 102 92 86 81 78 76 74 71 68
62 62 63 66 69 74 81 87 93 99 106 112 115 122 128 129 124 122 117 115 108 101 94 90 85 80 77 75 73 70 68 65
60 61 64 69 76 81 87 94 99 105 110 116 124 130 131 128 124 119 112 104 100 93 87 82 80 77 74 71 69 67 63 59
62 65 71 76 81 88 95 100 105 111 117 124 131 132 128 123 118 112 105 98 92 86 81 78 75 72 70 67 63 63 60 57
68 72 79 84 90 96 101 107 113 119 124 129 131 129 125 122 116 105 98 90 84 80 77 73 70 68 66 63 60 58 56 53

GFSFLT1_250_spd_027.txt.gz
Wind_Speed
56 57 54 48 45 42 36 44 45 54 59 64 66 63 67 69 67 65 66 68 69 71 72 74 72 72 75 76 76 77 77 76
46 47 47 46 48 48 44 45 49 57 58 64 71 69 70 70 66 67 70 72 74 75 74 74 75 76 77 80 81 82 85 87
43 44 47 50 47 46 51 54 56 55 60 65 66 66 67 67 68 71 73 75 75 76 76 76 78 81 85 87 88 90 92 94
37 42 46 50 53 53 52 53 54 57 60 63 64 65 67 69 72 73 75 78 79 79 81 84 87 89 93 96 98 101 103 104
40 42 46 50 51 50 51 50 53 56 59 62 64 66 67 69 72 75 78 80 82 85 88 92 96 100 104 108 110 112 112 113
44 48 51 52 52 50 50 53 55 58 61 64 66 68 71 75 77 79 82 86 89 92 97 102 106 108 113 115 117 119 119 122
42 47 49 48 45 43 51 53 55 58 60 63 67 71 74 76 78 81 85 89 95 99 104 107 111 115 118 119 121 123 125 123
40 43 45 45 45 46 51 56 58 61 64 67 71 73 76 79 83 87 92 96 101 105 110 114 118 123 124 124 122 122 121 121
45 47 48 50 52 53 56 59 63 66 69 71 74 76 78 82 87 91 96 103 107 113 116 120 121 126 125 122 121 121 121 122
41 45 48 50 52 54 56 59 62 66 69 72 74 77 81 87 92 97 103 109 113 118 121 124 127 127 123 121 120 120 121 118
41 43 45 49 52 56 59 62 63 65 67 71 75 80 85 90 96 102 108 114 120 123 125 127 127 128 124 119 119 117 110 105
45 47 50 52 54 57 60 62 65 68 72 76 80 84 90 95 102 109 113 119 124 127 130 133 128 120 118 117 111 105 100 95
48 50 52 54 57 60 62 64 68 71 75 79 85 90 96 104 109 115 121 127 128 127 126 121 115 114 113 109 102 95 89 84
54 55 57 58 60 61 63 65 69 73 79 87 92 100 106 112 118 123 129 127 123 120 115 111 107 105 100 96 92 85 80 76
58 59 60 60 62 63 66 70 75 82 88 95 102 108 113 117 123 128 125 121 117 111 108 103 99 95 91 86 82 78 74 70
59 61 63 63 65 67 72 77 82 89 96 102 108 113 118 124 128 127 123 117 110 105 101 97 92 87 83 79 76 74 71 68
59 61 64 66 69 73 79 84 91 97 102 108 114 118 125 129 130 127 121 115 109 103 95 89 85 80 77 74 72 70 68 65
61 63 67 71 75 81 86 92 99 104 108 114 119 124 129 133 127 124 121 111 107 97 89 83 78 74 71 71 68 64 61 60
68 72 75 78 83 89 94 100 105 109 115 119 124 130 132 127 126 122 115 109 101 91 85 79 74 70 68 67 64 61 58 56

GFSFLT1_250_spd_030.txt.gz
Wind_Speed
73 66 65 58 53 51 44 38 41 50 51 64 64 66 67 69 70 72 75 79 77 74 72 72 75 77 79 80 79 79 78 76
55 52 49 46 45 44 36 32 49 54 64 67 70 72 74 75 75 75 78 77 76 75 75 76 78 79 78 79 81 82 84 85
42 44 43 42 32 33 37 45 50 56 60 67 74 74 73 75 75 76 77 76 76 76 77 78 80 83 84 84 85 87 89 90
38 39 40 38 43 50 52 55 58 61 63 67 71 70 71 72 74 74 75 77 78 80 82 83 85 88 89 90 93 95 96 101
37 39 42 46 50 53 55 57 59 61 65 69 67 69 70 71 73 75 77 80 83 84 86 88 90 92 95 98 101 105 108 112
36 39 40 40 41 42 45 48 51 57 62 63 65 69 71 73 75 78 79 81 84 87 88 91 95 98 103 107 111 115 118 120
31 34 37 41 44 47 48 51 53 58 61 64 67 69 71 73 76 79 82 84 87 91 94 97 102 105 108 114 119 122 125 126
35 38 41 42 45 50 53 54 57 59 62 65 67 69 72 75 77 80 84 88 91 95 99 103 108 113 119 123 125 126 124 123
37 40 42 46 49 52 53 56 58 60 62 65 68 72 74 76 78 82 87 91 95 100 105 110 116 119 122 127 127 124 121 121
41 44 46 49 51 54 56 59 61 63 66 69 72 74 76 78 82 85 89 96 102 107 112 115 117 121 122 122 121 118 117 117
46 48 50 53 55 58 61 63 64 67 69 71 72 73 75 79 84 90 96 104 108 110 111 114 117 119 118 117 117 114 112 109
49 51 53 56 57 59 60 61 63 65 67 69 71 74 80 85 91 97 101 105 109 113 115 115 117 116 115 111 107 105 103 98
49 51 52 54 57 58 59 60 61 64 66 68 73 79 86 92 98 103 109 112 116 117 116 117 117 113 108 102 99 94 91 89
54 53 52 52 53 55 57 59 62 66 71 76 83 89 96 102 107 113 118 119 120 119 119 118 114 107 99 93 90 87 84 81
59 56 55 56 57 59 61 64 68 74 80 86 91 98 105 108 116 121 122 125 123 123 120 113 105 100 92 88 84 81 78 74
62 62 59 58 60 63 67 72 77 83 90 95 101 107 112 117 123 124 128 127 125 122 116 108 99 93 89 86 81 78 74 70
65 65 61 61 66 70 75 80 85 91 97 103 109 113 118 125 125 129 128 127 123 119 108 102 94 88 83 80 77 73 69 65
69 66 64 68 73 78 84 88 92 98 103 108 112 117 124 126 129 126 127 125 120 110 103 96 91 85 79 76 73 70 64 62
74 72 73 77 80 85 90 93 98 103 110 113 118 122 127 128 128 126 125 120 113 107 97 92 86 80 75 72 70 66 62 57

GFSFLT1_250_spd_033.txt.gz
Wind_Speed
69 62 61 59 58 60 56 52 42 42 34 50 51 62 63 62 70 77 81 83 83 86 83 83 83 83 80 78 78 79 79 80
57 54 50 48 44 39 42 43 34 32 59 51 55 66 77 82 85 88 87 86 85 85 84 83 81 79 80 81 82 84 86 86
43 42 41 40 38 37 21 52 37 41 62 57 62 68 72 78 81 81 82 84 83 81 80 82 83 85 86 86 87 88 89 89
36 38 38 38 38 39 39 45 50 53 56 60 65 71 74 74 75 75 74 76 79 81 82 83 84 85 87 88 88 89 91 93
30 30 30 33 36 37 39 42 45 48 52 55 60 63 67 70 72 74 75 77 79 81 82 83 83 85 88 90 93 96 99 103
25 27 31 34 37 39 42 45 48 49 52 55 58 61 63 65 68 71 73 76 79 81 82 83 84 87 91 96 101 106 109 112
28 32 34 37 39 42 45 48 52 55 57 59 61 64 66 68 70 72 75 78 78 79 80 85 90 95 100 104 108 110 112 116
31 34 37 40 44 48 51 54 56 59 61 63 65 67 68 70 71 73 75 75 78 82 87 92 98 102 106 106 109 111 112 114
32 36 40 44 47 50 53 55 58 59 61 62 63 64 65 66 68 71 73 78 83 88 94 97 101 105 105 108 111 110 111 112
36 40 43 45 48 51 53 55 57 58 60 61 63 64 65 67 70 74 78 84 89 97 100 104 105 106 109 108 109 110 109 107
41 43 45 47 50 52 53 55 57 58 59 60 62 65 67 71 75 82 87 94 98 102 106 109 110 110 110 112 111 107 101 100
43 45 48 50 54 55 55 56 56 56 57 60 64 68 73 77 81 89 96 100 104 105 106 109 111 115 118 115 107 101 97 93
47 49 51 53 56 57 55 55 56 56 59 64 70 76 80 86 92 98 102 105 107 108 112 115 118 120 117 108 102 94 88 85
50 50 53 56 59 59 56 56 57 62 66 72 79 83 88 94 100 105 108 107 112 116 116 118 121 116 111 104 95 88 84 81
57 58 60 62 64 64 62 64 66 69 73 79 84 89 96 101 107 109 111 115 117 118 119 120 116 110 102 94 89 85 80 77
61 63 65 67 70 70 69 70 72 75 80 86 90 96 102 109 110 111 115 117 120 121 120 117 112 104 95 90 84 80 77 75
67 70 70 70 73 75 76 76 79 83 87 92 98 103 110 112 113 114 116 118 121 119 116 112 105 96 91 85 81 77 74 70
72 75 75 75 77 79 81 81 84 88 93 98 104 109 114 116 115 115 116 119 119 115 111 106 97 92 86 82 78 74 70 67
75 78 78 79 80 84 85 84 88 92 97 103 109 113 118 117 115 115 118 117 113 110 107 99 93 87 82 78 74 71 67 63

GFSFLT1_250_spd_036.txt.gz
Wind_Speed
53 59 61 62 66 66 65 62 57 51 40 33 43 50 58 62 59 65 72 77 80 86 89 93 97 98 93 87 85 85 83 83
47 47 47 48 49 52 48 43 39 26 36 34 50 55 53 60 69 76 82 83 88 91 95 96 96 86 87 87 86 85 86 85
41 44 46 41 38 36 35 31 33 37 41 47 58 61 65 66 73 82 85 89 92 91 89 85 86 85 84 85 85 86 85 81
35 34 33 33 35 37 37 36 37 44 47 52 60 62 66 66 70 72 74 76 78 79 81 83 83 84 85 84 83 83 85 89
28 30 30 28 27 29 32 34 36 40 45 49 54 58 61 65 68 71 74 77 79 80 80 80 80 79 79 82 86 90 94 97
18 20 24 26 29 33 36 39 43 47 51 55 59 63 66 68 71 71 71 71 71 70 71 73 75 80 85 89 94 97 101 102
20 24 27 31 34 37 40 43 46 50 53 56 59 62 64 65 66 67 67 67 67 70 74 79 83 88 92 96 100 103 103 106
24 26 29 32 36 39 41 45 48 51 54 57 60 62 63 64 63 63 62 66 71 77 80 84 90 95 98 100 99 102 106 109
24 27 32 35 38 41 44 47 51 54 55 57 59 60 60 59 59 62 66 71 76 80 84 92 96 97 98 99 101 105 108 109
26 29 33 38 41 45 47 49 53 55 56 57 60 61 61 62 64 68 72 77 83 86 93 98 99 99 100 104 108 112 113 109
30 33 39 42 44 47 51 53 55 57 59 60 61 61 61 65 68 72 78 82 88 94 99 101 101 101 104 108 113 113 111 110
34 40 45 47 49 53 57 59 61 61 63 64 64 65 67 71 75 80 84 90 95 100 103 105 104 104 107 112 113 111 109 105
39 44 48 52 56 60 64 66 66 66 68 69 69 70 70 74 80 86 92 96 102 107 108 107 106 107 111 113 113 110 105 97
43 47 52 55 59 64 67 71 70 70 72 71 73 73 75 79 87 92 98 103 108 110 109 107 108 111 113 112 109 104 95 89
47 52 56 59 64 69 72 75 74 76 77 77 79 79 81 85 93 99 104 109 111 112 108 110 111 113 111 108 103 94 87 83
53 58 63 65 68 73 77 80 80 82 82 83 86 85 87 92 98 104 110 113 114 111 111 111 112 111 107 104 94 89 83 78
60 64 67 71 75 79 81 85 85 85 87 88 88 88 92 98 104 110 115 115 113 110 112 111 110 106 103 97 89 83 78 73
65 70 75 78 80 84 87 88 88 89 90 90 88 92 98 104 110 114 119 115 112 114 113 111 105 101 97 91 84 79 73 71
71 75 78 81 85 88 90 90 91 93 92 90 93 98 104 110 115 119 116 112 112 112 111 107 103 99 91 86 80 74 70 68

GFSFLT1_250_spd_039.txt.gz
Wind_Speed
48 50 48 52 54 55 53 60 62 63 62 60 58 47 44 51 56 58 66 70 72 76 79 82 86 91 96 98 102 105 96 95
52 53 59 61 58 56 57 57 56 58 57 52 50 49 51 59 60 65 74 81 77 84 88 89 92 93 97 102 94 91 92 90
50 49 50 49 51 52 49 47 45 45 44 46 47 51 51 55 61 69 72 77 88 86 89 90 87 87 85 87 87 82 79 80
44 43 43 43 42 40 38 35 35 34 35 37 47 52 54 61 64 67 72 75 79 82 84 86 87 86 81 77 76 79 83 86
39 36 34 33 30 27 27 28 31 35 38 43 46 50 55 61 65 69 71 77 79 80 80 78 75 71 73 77 81 86 89 94
28 25 22 22 23 25 29 32 36 40 43 46 49 54 57 60 64 66 68 69 70 71 69 67 69 74 80 82 89 94 98 100
18 18 19 22 25 29 32 36 39 42 45 48 51 53 54 56 60 64 66 65 63 61 65 70 75 79 85 90 94 99 103 104
17 19 21 24 27 30 34 35 38 42 45 48 53 57 59 60 62 62 62 65 67 69 72 75 78 85 91 96 100 103 108 107
19 21 23 26 30 35 37 39 43 47 51 55 58 59 60 63 64 66 65 67 70 71 73 77 85 90 96 101 104 106 107 107
21 24 27 31 34 38 41 44 48 51 56 58 60 64 67 68 69 68 70 74 74 75 79 83 91 96 102 106 108 108 107 109
26 29 33 35 38 42 46 48 52 56 61 65 67 71 73 73 73 74 75 78 80 81 84 91 97 103 106 110 110 108 110 112
31 34 37 38 41 45 50 53 58 62 68 71 74 76 78 76 77 78 80 82 83 86 91 97 102 106 111 112 112 112 112 114
36 39 43 44 47 50 57 61 65 70 76 77 79 82 82 80 81 82 83 85 88 93 97 102 107 111 114 113 113 114 115 113
40 44 47 52 54 57 63 67 72 76 79 82 83 85 83 83 84 84 85 90 94 97 102 107 111 114 113 113 112 113 109 104
45 48 53 58 60 64 67 73 77 80 83 86 88 86 84 87 87 87 92 96 99 103 109 113 115 111 112 112 111 106 102 98
49 53 58 62 66 69 73 76 80 84 87 90 89 86 88 89 90 93 98 102 105 109 115 115 111 109 113 112 107 101 98 92
52 57 63 67 70 75 78 81 85 87 90 91 89 89 90 91 94 99 104 107 112 115 116 113 111 110 112 104 101 98 92 85
56 64 69 72 75 79 82 85 89 92 93 91 90 92 94 96 100 106 109 113 116 118 115 112 113 110 106 101 99 94 86 79
63 69 73 76 80 83 87 90 93 94 92 92 93 93 97 102 105 109 113 116 119 114 111 113 112 106 103 98 95 88 80 74

GFSFLT1_250_spd_042.txt.gz
Wind_Speed
41 43 44 43 43 44 48 54 57 57 63 68 68 67 69 67 71 69 71 71 67 67 72 76 81 81 87 91 93 94 99 95
38 45 48 53 52 53 54 57 59 63 62 62 64 64 61 59 60 59 62 65 67 70 74 79 85 88 90 90 91 89 88 83
49 52 55 54 55 55 58 60 58 52 51 51 51 50 48 47 51 57 62 67 72 76 80 82 83 84 84 82 80 75 72 70
50 49 49 51 56 49 46 44 43 42 40 38 39 41 43 47 51 52 56 64 68 70 71 71 71 70 70 72 70 69 72 75
53 55 54 45 41 38 39 33 31 33 35 37 40 42 45 47 48 51 57 62 65 66 67 68 70 71 73 76 77 78 79 81
37 37 37 37 32 27 27 28 32 33 35 37 38 39 40 45 48 51 56 58 62 66 68 71 71 72 75 77 79 81 83 85
33 30 27 23 24 26 28 28 29 34 35 36 38 42 45 50 56 59 65 65 68 66 66 68 71 74 76 78 81 84 88 93
20 20 24 25 26 27 28 29 33 36 38 39 44 49 54 58 63 67 70 73 75 72 71 72 75 77 79 82 85 89 94 101
21 22 24 25 27 30 32 33 37 43 44 47 50 55 61 68 70 75 78 80 80 74 75 76 77 79 82 88 93 98 102 108
23 25 27 29 31 34 36 37 42 48 49 54 58 62 68 72 75 77 81 85 81 78 78 79 81 85 89 95 100 104 107 110
28 29 30 34 37 41 43 43 48 54 57 60 64 68 73 77 80 84 87 86 82 81 82 84 87 92 98 103 107 110 111 113
33 34 36 37 41 44 49 53 53 57 62 66 69 73 78 82 85 88 89 87 84 84 86 90 95 100 106 108 110 112 115 112
38 39 41 45 44 48 53 59 60 65 68 72 76 80 84 86 89 91 91 87 87 88 92 96 101 105 110 112 113 114 113 113
40 42 44 47 49 51 54 61 66 70 74 77 81 84 88 91 93 94 90 88 90 94 98 104 107 110 110 114 113 112 111 111
46 46 47 51 54 57 58 64 71 75 80 83 85 87 90 93 96 93 90 91 94 99 105 109 111 112 115 115 111 112 111 106
52 53 55 57 59 61 64 70 76 80 84 87 87 90 92 96 95 93 93 96 100 107 110 111 114 116 115 111 109 109 108 105
53 57 59 59 58 62 68 72 76 81 84 85 90 93 98 98 96 96 99 101 107 111 112 114 117 114 115 113 113 109 105 101
57 58 62 64 66 69 75 76 79 81 86 90 93 98 99 98 97 100 103 107 112 114 114 116 115 114 112 109 108 104 100 94
61 63 66 71 75 75 78 79 82 86 89 92 99 99 99 100 101 105 109 114 116 116 117 112 111 111 111 107 102 100 96 90

GFSFLT1_250_spd_045.txt.gz
Wind_Speed
28 37 34 33 42 42 49 58 56 58 58 60 64 68 70 73 76 76 77 74 71 70 70 69 70 74 77 80 82 87 88 84
26 33 39 36 46 49 47 50 54 57 61 65 64 67 70 72 69 66 64 58 57 61 65 67 68 70 72 75 78 75 75 76
34 35 42 40 43 46 49 52 54 56 59 63 67 65 60 57 53 51 51 51 52 52 52 55 60 64 67 71 73 75 76 79
36 35 42 47 48 50 53 53 54 57 58 59 53 51 47 45 46 44 43 41 45 52 58 63 65 69 73 75 75 75 76 78
44 44 44 48 50 51 49 52 53 49 51 48 41 41 42 40 40 42 44 47 52 57 62 67 73 76 80 80 77 78 78 77
40 44 42 43 42 40 41 42 44 42 40 40 41 41 38 38 42 46 50 55 60 64 68 72 76 81 83 80 80 79 79 77
34 37 33 33 35 34 31 33 39 39 39 41 41 40 41 45 47 51 56 59 62 66 72 76 81 84 88 82 79 79 79 83
29 32 31 26 26 29 32 35 38 42 40 43 45 45 47 50 53 57 62 66 70 77 79 82 86 92 90 83 80 83 87 92
23 23 25 26 28 32 34 36 39 43 45 46 50 52 56 58 60 64 68 74 78 85 86 89 93 96 89 86 88 91 95 102
24 25 28 31 34 36 36 35 42 47 51 55 56 58 62 62 66 70 76 82 86 88 90 93 99 94 90 90 94 98 104 110
28 30 32 34 36 38 41 42 46 50 54 58 60 63 66 69 74 79 83 87 87 89 92 97 98 93 94 95 99 105 111 116
31 32 34 37 39 43 45 47 50 54 58 61 63 66 70 74 80 83 85 85 87 91 97 99 96 96 97 102 107 111 114 114
35 36 38 39 42 45 49 51 53 55 59 64 66 70 73 76 80 81 83 88 90 98 101 99 97 98 102 109 114 114 114 113
38 39 41 43 45 48 50 53 58 60 61 64 67 71 76 77 79 85 86 88 96 102 101 99 99 104 109 115 112 112 112 109
42 42 44 45 47 50 54 57 60 64 69 72 73 75 77 82 85 90 90 95 103 104 101 100 105 110 114 115 114 113 108 109
45 46 51 54 55 56 59 61 65 70 74 76 76 78 83 87 93 93 96 101 108 105 103 106 112 116 116 116 113 108 108 108
51 52 55 59 60 61 63 66 69 74 78 79 80 85 91 94 96 98 101 109 108 106 108 113 118 118 116 114 112 110 107 104
58 60 61 61 64 67 68 72 74 78 79 83 89 94 97 98 99 103 109 110 108 109 113 119 120 118 113 110 112 109 105 105
61 62 64 67 69 72 73 75 78 79 84 89 94 99 99 99 104 110 111 109 112 116 121 123 120 116 115 114 112 108 104 100

GFSFLT1_250_spd_048.txt.gz
Wind_Speed
42 43 39 41 42 46 50 43 37 42 52 54 59 61 65 65 71 71 71 74 77 76 76 74 65 62 59 58 60 65 68 71
45 37 34 35 39 40 40 38 43 47 54 53 55 58 59 62 68 71 76 76 73 72 65 61 60 55 56 58 63 67 72 76
39 41 40 30 35 35 43 45 50 51 49 53 57 57 58 61 66 67 65 65 63 61 59 58 56 59 62 65 68 72 76 80
28 31 35 38 41 39 42 49 55 55 52 52 54 59 58 57 59 60 58 58 58 55 56 57 59 63 68 70 74 78 80 85
32 34 37 36 37 38 43 46 47 49 51 48 52 54 54 52 54 54 56 56 55 58 58 62 65 71 75 78 82 83 86 90
35 35 38 42 42 42 44 45 46 47 49 48 48 47 47 50 54 56 56 56 58 62 64 67 70 74 79 84 84 86 91 94
39 40 42 40 40 40 36 40 42 42 42 42 44 46 50 53 55 58 60 62 66 68 70 72 76 80 83 85 86 90 94 98
34 33 31 32 34 35 35 32 36 38 42 44 48 50 53 57 59 62 63 65 68 71 71 74 78 82 84 86 90 92 98 98
31 30 30 29 29 29 29 34 39 42 46 48 50 51 53 57 61 64 66 70 72 71 74 75 78 82 87 91 94 98 102 97
29 29 28 29 29 29 33 38 43 46 48 51 52 54 56 60 63 65 66 68 70 73 77 79 82 88 93 95 97 104 103 100
29 29 31 31 31 31 38 42 44 46 49 51 54 57 60 62 65 67 70 73 74 75 80 84 91 95 98 101 102 108 105 104
28 31 33 35 36 38 39 41 44 47 51 54 57 60 64 67 71 75 76 75 77 81 87 90 95 97 101 105 108 107 106 109
29 32 34 37 40 42 42 45 48 52 56 58 61 65 68 70 75 77 76 78 83 89 93 96 97 100 107 110 107 107 112 116
30 32 36 39 43 45 49 53 56 60 63 64 65 67 71 74 76 76 80 84 89 93 97 99 103 108 110 107 110 114 114 112
32 36 38 42 45 47 51 54 59 62 64 67 71 72 71 75 77 81 87 90 93 96 99 105 109 107 108 112 117 115 112 110
36 39 41 45 48 52 55 58 59 62 66 69 70 72 76 80 84 88 93 95 96 101 106 108 106 110 115 115 115 114 113 111
41 43 47 50 52 55 56 59 63 65 67 71 75 79 83 86 90 94 97 98 104 107 102 107 113 115 115 115 115 113 111 111
48 50 50 53 55 59 62 65 66 68 72 77 82 87 89 93 96 97 101 107 105 104 111 117 116 115 116 116 113 113 115 114
52 53 54 57 60 62 65 67 71 75 79 83 88 91 94 95 98 104 107 103 106 112 119 118 117 117 115 115 116 116 114 112

GFSFLT1_250_spd_054.txt.gz
Wind_Speed
36 32 30 31 31 35 35 31 36 35 36 38 44 50 57 60 64 65 68 70 67 65 71 70 72 72 72 72 71 69 71 73
37 37 35 32 29 31 31 37 36 36 40 45 47 47 57 61 64 60 60 63 70 67 66 68 67 66 66 65 67 70 73 76
41 38 37 39 36 39 42 46 46 44 44 45 47 47 49 54 59 59 61 65 64 65 68 65 64 62 64 68 70 74 76 78
39 40 44 39 35 30 35 38 35 43 43 44 47 49 52 53 53 55 58 60 59 60 61 60 60 64 67 71 74 75 75 76
41 42 45 43 42 39 35 30 31 39 40 39 42 47 49 48 50 54 53 53 55 55 59 62 65 68 69 72 75 77 80 80
34 36 36 38 44 41 42 46 42 43 46 48 53 58 58 56 53 50 50 50 54 59 63 67 69 70 72 73 75 79 80 79
34 36 37 44 47 48 48 48 53 52 53 55 53 45 49 49 46 48 51 54 59 66 69 69 69 72 73 75 76 76 78 81
32 34 36 37 40 42 44 43 47 52 49 43 37 39 45 45 50 52 56 61 66 68 69 68 69 71 73 73 77 80 83 84
34 35 36 37 41 44 43 42 39 34 28 30 34 42 44 49 54 58 61 67 65 67 68 67 68 69 72 76 82 84 86 87
36 40 42 38 37 35 35 33 32 26 25 32 39 45 49 57 62 62 63 63 65 66 67 68 70 74 79 85 86 88 89 93
42 42 40 34 32 32 33 32 29 24 29 37 46 53 59 61 62 58 62 64 65 66 68 71 76 82 86 88 89 92 95 99
35 32 31 31 31 32 33 32 28 28 34 41 48 55 59 57 58 62 64 66 69 70 71 78 84 88 90 91 94 96 100 105
33 34 34 32 31 31 31 30 31 31 39 43 49 56 58 60 66 67 69 72 74 75 78 83 87 90 92 95 97 101 106 109
34 35 35 33 32 32 33 30 31 37 41 44 55 57 60 65 69 72 74 76 77 79 81 86 89 94 96 98 100 104 110 110
35 36 35 34 33 33 32 33 37 38 44 51 52 62 64 67 72 74 76 79 82 81 88 90 93 96 98 101 103 109 111 115
38 36 35 32 32 32 35 37 41 47 49 55 60 64 67 71 73 75 78 81 84 88 91 93 97 99 101 102 107 111 114 118
41 39 33 29 32 35 39 44 47 52 55 59 64 68 72 74 76 79 81 83 86 89 93 96 99 102 103 107 112 113 117 119
37 35 33 33 36 40 44 47 52 56 60 65 68 72 74 77 79 81 83 86 89 93 96 99 102 104 108 112 113 116 119 120
32 34 36 39 42 45 48 52 56 61 64 67 70 74 76 77 79 82 86 89 94 97 99 102 103 108 112 113 116 118 119 121

GFSFLT1_250_spd_057.txt.gz
Wind_Speed
28 27 35 36 32 32 36 41 50 51 61 64 52 61 59 48 48 49 55 55 62 66 65 68 67 67 70 72 73 69 70 67
36 28 29 31 30 28 25 30 28 36 37 45 44 45 43 45 49 50 56 56 58 60 64 68 71 72 72 73 68 66 65 68
44 38 34 33 29 28 26 30 31 31 36 40 44 48 49 49 48 49 53 53 56 60 64 66 67 69 67 66 63 65 69 72
34 41 38 37 36 34 37 38 41 38 44 41 45 49 46 48 48 50 53 57 58 59 61 62 64 62 61 61 65 69 72 73
23 29 33 38 39 40 42 38 39 39 35 31 32 34 42 43 45 46 53 57 57 61 58 56 56 59 62 67 70 71 74 76
30 36 36 39 39 38 38 40 42 43 44 45 48 53 53 54 51 55 60 59 56 51 53 56 60 65 69 73 73 73 74 75
25 26 28 31 34 35 35 42 43 45 49 52 53 52 53 53 53 54 49 49 49 53 57 62 67 73 76 75 75 75 73 72
21 24 27 33 38 39 38 37 40 42 44 46 46 45 41 38 41 43 46 49 53 57 62 68 73 74 74 75 74 74 75 77
24 24 27 29 32 35 37 39 42 44 42 40 36 33 37 38 38 44 52 54 58 64 68 68 71 74 74 73 75 78 82 86
22 25 28 30 34 39 41 44 42 36 34 33 35 34 37 39 44 53 58 62 64 66 66 73 75 73 73 77 77 82 87 90
29 32 35 35 37 39 38 37 35 33 33 34 33 34 37 44 52 57 64 63 65 65 74 77 78 77 76 80 81 87 90 93
36 38 37 38 35 33 32 33 33 34 34 32 33 36 39 45 53 60 66 65 68 73 78 79 82 83 83 84 86 90 93 96
39 41 41 35 31 31 32 33 35 35 33 32 35 35 43 48 56 64 63 66 73 79 79 83 86 87 90 91 91 93 97 100
43 39 34 33 32 32 32 35 37 36 37 38 38 43 50 55 59 61 65 73 77 80 83 87 89 91 91 93 94 99 101 103
35 35 32 33 35 36 37 38 39 39 39 40 44 47 54 56 59 64 71 74 78 81 86 89 90 93 96 98 99 100 103 106
38 39 37 36 39 40 38 36 39 43 42 45 49 52 55 60 65 68 71 75 80 85 87 89 90 94 98 100 102 105 106 109
38 39 41 43 43 40 40 41 45 45 47 49 53 56 60 64 66 69 74 78 82 85 88 90 92 94 97 99 102 104 108 114
37 38 40 42 42 41 38 40 43 46 49 52 55 59 63 66 70 74 76 80 84 85 88 91 96 98 100 104 106 108 114 118
38 39 39 40 40 41 41 43 45 48 51 55 59 63 66 70 73 76 79 82 84 86 90 94 96 101 104 106 110 114 117 119

GFSFLT1_250_spd_060.txt.gz
Wind_Speed
26 25 27 26 28 27 35 44 45 41 42 53 65 78 77 72 73 75 72 68 63 66 74 67 68 62 65 66 67 68 72 71
31 26 30 33 30 27 28 28 37 48 46 44 52 53 67 55 72 68 59 61 62 66 66 60 66 68 70 65 67 68 69 70
34 34 26 29 32 32 32 31 31 30 32 35 42 48 47 43 50 51 53 57 62 62 60 62 64 63 63 68 70 70 65 64
39 42 39 30 32 34 33 32 32 30 34 34 36 39 42 47 49 49 51 50 52 58 59 59 60 63 66 69 67 62 62 66
30 34 39 42 42 37 38 38 36 36 39 40 42 42 46 48 44 44 46 48 54 59 56 60 64 66 64 64 60 64 67 70
27 29 30 35 36 36 39 43 42 43 43 43 46 48 46 46 51 53 54 55 58 59 60 63 64 62 60 59 65 68 73 77
23 26 28 30 32 36 37 39 42 40 40 41 44 45 47 50 53 52 52 54 56 57 58 60 59 58 61 65 69 73 75 79
20 22 25 27 30 34 36 37 36 37 41 44 44 44 46 47 47 47 48 49 49 49 55 57 60 64 69 73 73 72 81 85
23 26 31 32 33 35 36 37 38 41 41 42 45 46 45 42 39 39 48 49 46 48 55 61 63 69 74 74 77 80 84 88
25 27 30 32 33 34 36 37 38 41 45 45 44 36 39 42 40 44 48 48 48 58 64 66 68 71 74 76 80 85 89 88
25 28 29 31 32 35 37 38 40 42 40 39 38 38 40 42 45 46 43 49 57 62 65 69 72 74 78 80 86 89 89 91
28 29 32 34 35 36 38 40 38 37 37 37 39 40 42 43 46 44 47 53 59 65 69 73 76 80 80 84 90 91 93 95
33 36 37 37 40 41 38 34 35 36 38 39 42 43 44 46 46 47 49 57 62 64 75 72 74 78 85 92 94 94 95 98
34 38 41 42 38 36 36 37 38 39 39 42 43 46 47 47 48 50 55 60 64 69 67 78 82 85 88 91 95 96 98 100
36 38 37 35 36 39 41 42 43 42 44 46 47 48 50 51 53 56 59 63 68 73 75 80 85 88 91 93 96 98 100 102
39 39 40 39 39 41 42 43 45 45 44 44 44 50 52 53 58 60 62 67 71 76 79 81 85 89 93 95 97 100 102 105
42 41 41 42 42 43 44 46 43 40 47 49 50 52 54 57 60 63 67 71 74 77 79 83 88 92 96 98 100 102 105 107
44 44 44 44 45 45 45 46 45 45 44 44 48 52 56 60 63 66 70 73 75 78 82 86 89 93 96 98 102 105 107 110
46 47 45 44 45 44 45 46 46 47 48 50 51 54 57 61 65 68 71 74 78 82 86 88 91 94 97 100 104 106 109 112

GFSFLT1_250_spd_066.txt.gz
Wind_Speed
57 56 59 60 59 60 67 68 68 70 67 68 70 64 64 69 71 69 69 70 69 76 76 71 69 74 75 75 74 81 85 74
51 55 57 56 58 61 60 59 65 63 66 68 67 66 68 62 69 65 65 68 69 65 67 60 64 63 62 63 70 74 79 79
58 55 57 50 54 63 61 61 63 65 64 66 63 57 64 58 43 47 47 51 50 52 54 55 53 55 63 62 64 68 72 71
32 33 36 41 33 37 54 54 51 53 56 51 46 45 45 44 52 54 52 51 56 54 52 53 54 57 58 60 67 67 66 65
36 31 36 33 33 37 35 40 47 45 42 42 43 41 42 41 41 46 47 46 50 53 56 57 61 60 59 63 64 64 69 71
30 42 42 39 37 34 38 38 37 36 36 37 38 39 41 45 43 45 50 52 56 59 64 62 63 62 65 65 65 67 70 71
32 35 51 44 43 45 44 41 40 43 43 44 46 47 48 49 50 50 53 55 57 60 62 61 62 63 63 66 68 64 64 61
21 23 39 39 43 50 51 50 44 43 44 45 45 46 48 50 49 49 52 53 56 58 64 68 61 64 67 68 67 67 67 65
24 25 26 27 33 38 39 40 42 45 43 41 42 43 46 50 52 53 53 55 58 61 59 63 67 70 67 65 64 63 61 68
26 29 30 31 33 35 37 39 41 42 43 44 46 48 48 48 49 49 53 57 57 60 63 64 67 67 65 66 67 69 72 76
29 32 34 35 36 37 39 40 41 42 44 45 43 44 43 46 47 47 44 47 53 56 57 61 63 64 67 69 72 74 79 80
33 33 32 36 35 35 37 37 38 39 40 41 43 47 43 43 42 42 49 55 56 60 62 63 65 68 70 72 74 78 81 86
35 34 34 33 38 38 37 40 40 40 42 41 40 45 34 42 56 57 58 58 60 62 63 64 65 67 73 77 79 81 86 90
35 36 36 37 38 38 36 38 39 38 35 39 39 43 46 51 53 55 58 59 60 63 65 66 66 68 71 76 80 82 85 88
38 39 40 41 40 40 40 40 38 38 38 40 39 42 50 52 54 54 53 52 53 56 57 61 63 65 66 68 72 75 79 83
38 39 41 43 42 42 42 43 42 40 40 40 42 43 47 51 49 50 50 51 52 54 55 57 60 62 65 69 72 75 80 84
35 41 39 42 42 42 42 44 45 43 44 45 48 47 47 50 49 50 51 52 53 55 57 59 62 65 68 72 75 79 81 85
34 35 35 35 38 44 44 47 48 50 50 49 47 48 50 52 52 53 54 55 57 59 61 63 65 68 71 74 77 79 83 86
34 34 33 33 39 43 47 49 51 52 53 53 52 50 52 53 53 53 56 59 61 63 65 67 70 72 74 76 80 83 85 88

GFSFLT1_250_spd_069.txt.gz
Wind_Speed
32 48 50 56 56 59 63 64 71 64 65 66 63 63 63 68 67 61 66 65 65 65 65 70 68 71 68 66 66 68 73 72
31 48 48 54 58 60 63 64 62 67 67 65 64 64 60 64 69 67 65 65 69 70 73 72 73 67 70 67 63 62 70 72
38 48 54 57 55 55 56 57 59 61 69 67 66 66 68 65 68 69 72 64 67 56 53 58 61 56 57 58 58 60 61 63
25 47 51 55 55 52 52 54 55 57 58 64 64 65 68 68 68 63 62 60 61 59 63 61 58 62 58 60 62 65 68 71
18 20 30 53 55 56 54 56 53 54 55 58 65 57 57 57 53 55 51 46 41 47 51 54 57 60 65 66 72 72 74 74
26 20 25 30 49 55 59 58 54 47 46 47 50 52 46 45 44 46 42 42 48 53 54 54 60 61 63 66 68 73 74 75
20 22 25 30 33 36 36 39 41 44 43 45 45 40 44 46 50 52 51 53 56 55 59 59 62 64 68 69 70 74 78 75
19 22 25 28 38 41 40 39 39 41 40 42 41 44 48 50 53 58 56 57 59 61 63 64 65 68 70 72 74 72 72 71
16 21 23 22 28 35 40 45 47 48 46 45 48 49 48 49 52 57 60 58 59 59 61 63 64 66 69 71 72 71 69 69
16 20 22 24 27 28 30 36 42 44 46 48 49 50 52 51 48 51 49 51 57 61 61 60 62 62 63 64 66 68 70 75
23 20 21 26 29 32 30 29 31 32 35 37 40 40 36 39 40 43 41 38 41 44 49 56 60 63 66 70 72 75 74 75
27 27 26 27 26 24 27 31 29 26 24 28 27 27 28 20 18 23 36 33 49 53 58 62 66 73 76 75 76 76 77 78
29 31 31 29 26 23 27 25 24 30 32 29 32 28 20 26 31 25 61 59 59 64 72 73 78 78 78 74 74 75 77 75
27 29 32 32 29 29 30 19 12 31 25 24 24 26 44 37 42 51 62 67 64 68 75 76 77 72 69 68 68 68 69 70
24 33 31 27 32 33 33 23 30 38 39 38 36 43 46 50 57 64 69 72 74 73 71 74 72 67 65 65 65 67 69 71
28 26 31 36 26 27 31 37 42 50 51 47 50 51 53 59 65 71 73 76 73 72 72 71 67 66 66 66 69 70 71 72
30 26 26 32 39 33 28 27 37 47 50 52 57 58 63 65 68 71 73 74 74 71 68 66 65 65 66 69 70 71 74 77
35 29 28 28 31 34 34 36 35 38 43 49 55 58 60 61 62 62 59 59 62 64 64 64 65 68 70 71 73 74 75 79
35 33 30 27 28 29 30 30 32 37 42 48 52 56 59 61 61 59 57 58 60 63 65 65 66 69 71 70 74 77 80 85

GFSFLT1_250_spd_072.txt.gz
Wind_Speed
24 19 38 38 41 39 60 81 82 81 74 71 71 69 67 64 67 63 62 70 57 58 61 62 64 65 68 70 75 78 77 80
35 21 31 40 42 45 49 56 82 81 81 72 71 71 71 71 67 67 66 66 64 59 68 67 66 66 69 73 74 66 65 68
31 23 21 41 46 50 52 56 55 56 71 72 78 69 62 65 70 72 70 68 64 65 69 72 72 70 63 70 64 63 63 63
21 19 11 32 46 48 56 59 58 55 55 60 66 72 66 64 61 69 70 69 75 78 71 68 64 68 63 64 67 67 69 71
21 19 12 16 37 47 45 46 52 48 50 53 53 58 59 57 61 58 65 62 65 58 69 71 64 64 66 62 61 63 65 67
12 15 17 18 20 28 33 43 46 50 52 48 48 49 52 55 57 54 57 52 57 52 58 57 61 63 64 65 62 64 66 67
10 12 17 20 25 29 33 32 37 41 40 38 43 43 41 44 46 48 53 51 52 55 60 61 63 67 65 64 65 65 65 65
11 15 13 12 15 21 29 33 36 38 41 46 45 43 44 46 45 47 49 51 52 56 59 60 62 63 63 63 64 65 64 65
16 12 15 16 19 19 25 28 31 37 35 36 38 42 44 45 46 48 51 55 54 53 54 57 59 63 66 65 66 61 56 57
17 19 13 14 15 16 16 17 28 37 37 36 41 45 44 45 47 47 51 42 43 46 50 55 53 59 66 64 56 57 62 65
22 21 20 18 17 18 20 23 22 20 22 26 24 23 24 27 26 30 31 28 33 39 37 45 56 61 66 67 68 70 74 78
12 22 27 27 28 27 26 22 20 22 22 22 15 15 16 22 25 23 31 33 33 40 42 51 65 66 67 72 77 77 80 84
13 12 16 23 28 30 25 22 16 17 23 23 22 20 19 13 19 34 38 44 44 48 59 60 61 69 74 74 81 82 87 87
15 12 15 18 21 26 29 25 21 25 25 31 34 31 29 29 39 40 45 56 57 62 68 72 71 72 74 81 85 90 90 87
22 20 19 20 20 20 22 26 30 30 34 41 40 34 34 39 42 56 64 65 64 66 69 76 80 81 85 92 93 92 89 90
26 26 27 24 19 18 20 21 25 37 40 44 41 44 45 48 51 59 65 68 70 72 75 83 88 90 94 94 92 94 92 87
27 29 31 32 27 20 19 18 18 26 39 47 51 51 54 59 66 69 73 77 79 82 83 87 90 91 90 87 89 84 83 84
28 29 31 30 28 28 25 23 20 20 23 29 35 44 53 60 65 70 74 79 84 87 89 87 89 90 88 84 81 82 83 84
32 32 32 33 32 31 27 29 28 28 29 29 30 33 37 42 46 51 54 58 61 65 70 74 78 80 82 84 84 86 87 87

GFSFLT1_250_spd_075.txt.gz
Wind_Speed
25 36 25 38 43 52 65 62 68 64 61 63 66 61 59 62 64 64 65 63 63 60 57 51 53 46 50 53 58 59 60 64
40 32 37 41 41 52 59 62 76 63 64 62 65 66 63 64 65 68 72 70 71 68 65 62 60 67 68 66 65 68 71 77
24 23 22 24 28 42 52 54 67 64 68 68 67 67 65 62 67 68 67 67 64 60 70 66 65 68 68 68 72 70 68 67
25 20 12 13 20 42 45 47 42 55 62 69 71 76 72 72 70 67 69 69 71 71 64 59 62 67 71 64 70 65 59 58
13 11 7 12 19 25 43 50 50 46 53 63 72 71 65 59 62 66 68 63 63 55 64 62 62 59 65 59 56 57 58 57
9 10 13 16 20 25 30 38 49 50 52 56 59 60 61 64 59 52 60 65 60 63 62 60 57 65 62 60 68 61 65 65
10 4 11 21 22 24 30 29 39 44 49 52 54 58 57 58 59 61 56 57 55 53 58 60 56 60 60 62 69 67 63 60
11 8 7 12 20 24 28 34 40 44 42 42 41 47 47 47 48 48 52 53 53 53 52 54 58 60 59 61 62 65 63 58
16 13 11 14 16 17 22 30 35 39 40 40 40 39 40 41 45 45 45 45 50 50 51 50 51 50 49 54 55 58 58 52
14 15 15 18 17 17 18 19 24 31 36 37 42 40 40 43 41 42 44 49 49 48 43 38 41 46 46 51 54 59 67 64
4 9 13 16 16 16 16 18 18 18 20 22 26 30 31 31 33 30 29 33 36 41 39 38 39 43 46 55 63 69 73 74
13 9 6 13 19 22 22 22 20 19 22 23 25 27 28 28 25 23 24 26 31 38 40 36 40 48 57 60 63 70 77 75
18 17 16 13 10 11 14 21 20 19 23 25 26 28 30 28 30 31 28 27 42 38 42 42 46 52 57 67 71 77 79 84
17 18 19 20 20 17 14 13 21 26 30 35 34 34 35 34 33 33 35 37 39 51 49 51 55 61 69 74 77 79 80 84
18 15 16 19 22 22 19 15 16 24 32 36 36 41 40 37 42 43 47 47 48 52 55 64 65 70 74 79 82 86 89 92
21 19 19 18 18 20 21 20 15 18 23 35 39 42 43 44 46 46 48 54 56 62 66 68 73 77 81 85 90 96 98 101
25 24 23 22 21 17 19 18 19 18 17 21 30 42 47 52 53 54 56 58 64 68 73 77 80 84 90 96 99 103 102 100
28 25 29 28 27 25 21 20 18 18 19 20 25 31 35 39 47 57 59 61 67 71 76 79 79 80 77 76 79 81 84 87
31 31 31 33 33 31 29 27 25 21 20 22 25 29 34 37 38 40 41 42 46 50 53 53 55 55 60 63 65 68 72 74

GFSFLT1_250_spd_078.txt.gz
Wind_Speed
25 28 29 23 35 28 35 45 56 63 60 56 58 61 55 55 55 58 58 55 50 57 54 57 56 55 57 55 51 50 51 55
30 32 22 32 29 34 28 39 53 60 56 57 53 57 59 58 54 59 60 58 58 57 56 60 65 66 61 60 62 59 59 65
26 23 17 18 22 32 27 35 48 56 59 53 54 55 57 58 54 60 59 58 64 64 66 66 63 64 67 72 74 73 62 57
21 20 21 17 20 21 22 28 40 50 50 49 51 54 62 60 62 59 61 63 66 66 62 62 66 73 72 66 57 55 53 59
19 15 14 11 14 18 25 25 31 39 38 43 47 46 51 57 63 63 62 61 63 62 62 64 65 61 60 57 55 52 52 52
17 10 12 13 14 16 21 24 27 30 33 40 39 36 43 52 56 57 57 58 62 62 56 56 53 55 53 57 55 53 57 57
14 11 10 15 15 19 23 23 25 29 36 38 36 34 37 47 55 56 58 60 58 54 56 54 57 52 51 58 58 57 59 62
15 16 10 9 17 19 20 22 25 26 30 35 38 37 39 39 42 47 47 50 48 47 45 45 48 51 55 56 59 61 59 62
14 15 14 12 10 12 15 21 26 29 29 30 32 33 34 35 38 39 39 40 42 43 48 50 50 51 52 57 56 62 63 61
14 15 14 14 13 14 17 18 20 24 29 32 33 34 36 37 39 41 41 43 46 52 47 46 44 44 45 50 54 59 56 56
14 11 14 17 14 13 13 17 20 22 22 25 29 34 36 38 41 43 44 33 31 38 36 36 37 40 43 49 54 53 58 57
16 12 11 9 11 17 22 23 21 21 22 23 25 26 29 32 34 37 37 42 40 42 41 40 41 44 42 45 51 52 56 60
17 14 7 8 10 9 15 21 28 31 31 29 31 34 34 36 36 39 36 38 41 42 44 47 47 51 50 53 58 55 57 59
18 15 15 10 7 9 10 13 22 29 35 35 35 37 39 43 39 38 36 37 40 44 44 47 45 53 55 56 56 56 66 69
22 20 19 17 13 12 11 10 9 19 26 37 39 39 39 40 38 36 38 39 41 46 48 51 54 55 57 56 61 65 71 76
24 24 24 23 20 19 17 14 12 11 12 23 35 44 42 42 42 40 41 44 46 49 54 56 57 58 61 64 70 75 78 78
34 30 27 27 26 24 24 20 17 16 17 15 15 20 29 39 42 45 46 48 51 55 59 61 62 64 67 65 61 61 59 60
35 30 28 30 29 29 28 27 24 23 20 20 18 19 22 25 27 31 35 39 42 45 48 49 49 50 54 55 56 58 58 59
39 34 33 34 33 32 31 30 30 28 26 27 29 28 26 27 29 31 32 34 37 39 42 45 48 50 53 55 57 58 58 61

GFSFLT1_250_spd_081.txt.gz
Wind_Speed
20 17 20 19 25 26 23 22 19 31 31 41 54 51 53 52 46 42 46 46 48 53 50 47 54 59 60 56 59 64 66 60
21 21 21 18 19 22 21 23 24 27 38 40 48 53 47 53 50 48 49 48 51 53 56 62 58 56 56 58 61 60 56 59
23 20 14 13 16 22 26 28 24 32 38 44 50 56 55 49 52 52 52 55 52 55 56 54 56 60 60 61 58 59 57 61
25 21 15 16 18 20 20 22 27 32 40 43 50 52 51 51 53 54 54 52 54 53 53 53 53 59 64 65 59 54 63 63
25 18 15 18 14 16 20 25 31 33 40 39 40 46 51 52 53 54 52 52 48 50 48 54 61 61 57 56 60 63 55 51
23 15 13 15 12 15 20 28 31 33 35 39 40 41 49 49 46 45 49 53 57 55 57 51 54 54 50 46 48 52 57 54
26 14 11 13 11 13 17 28 29 29 33 32 33 35 36 39 43 47 45 41 44 53 57 48 50 47 41 45 51 53 50 51
27 21 11 9 6 15 19 20 25 25 26 28 29 27 28 28 30 32 32 35 34 36 38 37 39 43 48 49 48 51 52 54
28 23 17 9 6 5 21 23 27 31 31 30 28 30 31 31 32 34 38 36 37 39 41 42 45 45 49 50 52 52 53 48
24 26 16 15 12 11 12 13 20 31 35 34 34 36 36 38 40 38 39 40 41 41 40 45 44 47 48 49 47 47 47 51
19 21 20 11 11 14 15 15 13 16 22 29 34 39 42 43 44 43 44 41 40 43 45 49 49 53 49 50 48 50 49 52
12 20 20 13 8 7 11 17 20 19 18 22 25 29 34 39 43 45 47 45 46 46 45 48 48 48 44 47 48 50 53 51
16 13 18 16 11 10 9 9 13 18 24 25 26 28 30 33 37 41 42 42 41 42 42 44 45 42 43 47 49 48 50 54
23 16 15 17 13 13 14 12 10 10 17 25 30 35 37 38 40 41 40 39 40 42 43 44 43 44 47 47 47 51 54 58
32 22 18 18 14 13 16 17 14 12 12 13 21 25 30 38 41 38 35 36 42 41 43 44 45 46 49 51 53 55 57 58
39 32 21 21 22 19 17 18 17 15 14 15 16 17 23 27 29 32 33 32 33 37 40 44 46 49 52 54 54 50 51 53
40 39 33 29 28 26 23 23 20 19 19 18 20 19 19 18 21 24 28 30 32 33 36 38 40 42 44 45 46 48 50 53
47 42 41 37 35 31 27 26 25 24 23 23 22 22 23 24 25 24 25 27 30 32 35 36 38 42 44 45 48 49 52 55
49 49 44 43 42 37 31 28 29 30 28 27 26 27 29 28 28 29 31 33 36 38 40 43 46 49 52 54 56 57 59 62

GFSFLT1_250_spd_084.txt.gz
Wind_Speed
33 30 23 21 25 28 30 23 21 24 26 28 27 27 45 47 46 49 52 53 56 46 44 43 46 49 45 48 50 53 54 55
32 29 21 20 24 27 31 26 25 23 26 30 28 29 38 49 43 52 54 54 48 45 49 47 49 51 51 53 58 61 64 61
32 25 17 13 13 20 27 28 25 23 32 32 32 35 38 44 44 50 51 48 49 43 47 49 47 50 55 58 58 63 64 65
30 24 17 15 10 15 21 28 27 23 35 39 40 38 39 43 50 49 47 53 49 48 50 57 53 54 53 55 61 60 59 60
29 26 16 14 15 11 18 27 27 30 35 44 44 45 47 49 49 54 55 51 51 53 54 55 56 57 54 57 58 59 59 56
27 27 17 14 15 11 13 24 28 35 37 43 47 47 49 52 51 50 54 51 53 54 54 55 58 54 55 51 54 56 56 52
27 24 23 14 13 9 11 14 24 40 42 47 46 45 49 50 50 50 51 54 53 53 51 52 51 53 53 55 56 55 53 56
25 21 25 15 13 10 11 18 25 33 36 47 47 43 46 44 44 47 46 47 47 47 51 54 52 50 52 51 50 50 51 53
23 22 20 19 12 12 16 18 21 33 33 41 40 43 46 43 40 48 44 43 46 45 46 45 46 47 49 50 54 54 53 55
23 26 15 20 15 14 14 19 23 29 31 34 38 38 43 41 45 43 45 47 48 43 46 44 45 51 52 53 56 55 54 57
24 23 15 17 18 12 13 15 20 30 35 36 36 37 39 42 43 48 46 45 47 47 48 48 50 55 55 55 56 55 56 55
27 25 16 10 13 13 8 13 18 21 26 34 41 40 42 44 44 45 47 50 51 51 53 53 54 56 55 56 59 57 50 47
33 28 19 13 10 12 10 6 6 18 25 26 28 35 42 49 50 51 52 53 52 51 52 52 54 56 58 54 53 50 51 50
34 32 30 21 16 13 14 10 7 6 6 13 23 30 34 35 37 39 43 44 46 46 45 47 52 51 51 50 52 53 52 56
38 36 36 32 24 19 19 19 11 7 7 6 4 9 19 26 30 34 36 34 36 36 37 42 46 51 53 54 55 50 49 54
42 41 37 39 33 26 23 21 20 17 12 10 11 12 12 11 10 17 24 23 29 33 35 38 38 39 38 39 42 44 44 45
45 45 43 43 45 36 29 29 26 23 21 17 17 16 16 18 19 18 17 16 15 17 19 22 25 29 33 36 38 41 43 46
49 50 46 47 48 45 43 36 33 30 28 26 24 23 22 22 22 23 23 22 23 25 27 29 32 35 38 41 44 46 48 50
49 53 52 48 52 49 45 43 41 37 35 33 30 28 28 28 28 28 27 29 29 30 32 34 37 39 41 42 45 46 48 50

GFSFLT1_250_spd_087.txt.gz
Wind_Speed
33 33 37 37 32 24 23 32 35 36 41 38 33 38 46 50 51 48 58 59 55 44 42 44 46 54 46 46 47 49 51 49
30 32 37 38 32 27 27 30 34 37 39 44 37 35 27 43 49 57 60 56 53 48 43 52 56 50 60 56 52 52 51 53
28 31 35 37 30 25 25 31 37 37 41 45 38 35 31 33 42 50 47 52 53 49 54 57 54 46 55 53 50 49 52 54
26 28 33 35 26 19 22 25 31 40 40 46 42 36 37 35 41 46 47 46 47 54 56 55 56 52 49 52 54 50 47 49
25 25 30 32 26 20 15 21 22 36 36 43 41 38 37 35 44 46 49 52 52 51 53 57 56 51 51 52 54 54 56 55
24 25 25 30 27 21 14 15 24 36 33 39 40 42 41 40 48 49 49 51 53 53 47 51 55 55 53 57 53 56 61 61
23 24 23 28 28 21 14 9 21 31 34 37 44 51 49 48 52 54 55 55 53 54 58 58 59 59 58 59 61 59 62 63
23 24 23 26 26 23 15 11 17 29 38 40 51 52 53 55 56 55 60 59 59 59 56 56 58 57 59 59 58 59 61 63
25 23 24 25 24 23 18 11 18 24 39 43 50 56 56 57 60 57 60 60 58 56 55 55 55 55 55 57 60 60 59 61
28 23 24 27 19 22 15 13 13 18 35 42 47 54 55 54 56 60 63 63 63 61 58 58 56 58 59 58 59 59 62 63
28 23 23 28 19 16 17 12 12 16 24 38 44 46 57 55 50 53 59 57 55 57 60 61 58 60 60 60 60 57 57 61
33 29 27 26 22 13 16 14 11 14 18 33 38 41 50 55 52 54 51 54 52 56 55 55 59 60 59 57 61 62 62 64
38 36 31 28 25 18 12 14 12 9 16 21 36 44 44 44 48 49 56 55 57 58 59 63 59 54 57 60 64 65 61 59
43 38 32 34 24 25 19 12 12 13 11 13 25 29 35 46 47 45 49 51 53 55 52 55 58 59 59 60 60 60 61 61
46 43 37 35 35 25 30 23 17 16 16 13 12 14 24 34 37 41 47 54 58 59 61 64 62 58 54 55 56 56 58 59
49 49 41 37 41 35 30 36 29 22 21 20 17 16 13 13 15 18 24 33 38 42 45 47 50 53 52 53 54 51 50 49
50 47 44 42 43 43 34 33 37 32 29 27 25 23 22 20 19 19 19 20 20 21 25 32 34 36 37 36 34 37 37 37
58 51 49 47 44 46 48 42 38 42 39 33 33 33 30 29 27 26 25 25 25 25 25 27 29 30 33 33 35 35 37 38
65 59 53 51 49 47 53 51 44 43 43 43 42 41 38 36 35 33 32 32 33 32 32 33 34 35 36 38 41 43 45 47

GFSFLT1_250_spd_090.txt.gz
Wind_Speed
39 34 31 30 31 33 29 25 29 41 38 44 39 35 43 54 52 63 61 57 59 58 60 47 48 43 34 42 48 34 41 43
40 33 29 27 31 36 30 21 23 41 51 45 44 40 39 49 58 65 63 63 60 51 55 53 50 51 41 48 48 44 47 48
35 30 28 25 29 36 32 26 25 36 48 46 49 44 40 44 56 62 71 61 70 64 56 54 53 46 49 48 55 51 48 53
29 27 26 24 27 34 33 25 29 28 45 49 51 46 42 41 50 51 57 67 66 62 62 60 60 55 48 48 51 54 56 57
30 25 26 23 25 31 35 24 26 24 37 49 48 48 46 42 44 53 55 53 62 62 55 60 57 51 50 51 50 54 54 53
29 23 27 24 24 29 34 27 22 22 27 45 47 47 50 47 41 40 45 48 49 52 50 47 50 49 52 57 56 58 56 53
27 24 25 25 27 25 31 28 20 17 22 39 44 48 50 48 46 42 42 43 43 46 47 52 51 53 59 56 55 56 55 55
29 21 22 23 26 25 26 28 19 15 24 34 36 43 48 48 46 45 45 47 46 48 51 54 53 51 56 56 58 59 61 60
30 28 27 24 26 24 25 28 19 19 25 32 36 40 49 47 45 44 45 51 49 52 55 56 55 57 62 63 61 59 57 58
32 28 28 24 23 25 25 23 24 15 16 34 40 45 46 49 48 47 48 50 56 56 58 61 60 60 60 59 58 58 62 63
35 29 30 27 23 23 25 21 20 19 15 24 41 46 48 52 54 57 55 54 56 58 61 61 64 65 64 64 61 62 62 64
40 34 31 30 25 20 26 20 16 17 16 16 27 46 47 54 56 51 53 57 59 61 60 61 66 66 67 67 64 65 66 68
41 39 33 34 30 26 23 24 18 14 16 16 18 26 44 45 48 54 56 56 57 56 63 64 65 64 62 62 65 67 65 66
41 42 38 37 30 27 26 23 25 19 15 17 17 16 23 35 45 48 45 53 57 54 55 55 55 58 58 60 62 63 65 66
48 46 41 33 33 33 32 29 25 31 25 18 19 19 15 16 30 40 47 46 47 53 55 55 57 59 62 63 63 64 67 71
50 43 40 39 41 39 38 35 35 25 35 30 22 21 24 20 17 17 24 37 47 53 57 57 58 60 61 62 65 69 71 74
58 52 40 44 44 43 44 39 37 39 27 40 33 28 26 26 26 24 21 20 20 25 30 35 39 45 51 56 59 60 59 58
54 54 54 49 49 46 43 43 42 41 45 33 36 39 35 32 29 31 31 30 29 28 28 29 29 31 34 34 35 36 37 39
59 63 63 50 48 47 48 46 44 47 45 49 45 36 41 43 41 38 38 37 36 36 36 35 34 35 38 38 40 40 42 45

GFSFLT1_250_spd_096.txt.gz
Wind_Speed
38 40 34 32 36 35 38 39 37 32 33 32 36 33 26 36 34 40 49 51 51 45 54 60 48 47 45 41 42 40 40 33
33 41 31 32 32 32 37 35 30 30 31 32 25 32 26 38 38 44 46 56 52 52 54 53 55 49 47 43 46 37 41 38
30 41 29 30 29 32 37 32 29 28 30 30 29 25 27 37 41 44 46 51 58 58 56 54 50 53 54 46 45 46 39 44
31 42 28 29 26 29 34 29 29 29 30 30 28 26 27 33 42 45 49 48 52 56 59 58 57 55 56 54 53 46 47 42
35 41 29 27 26 28 32 30 28 28 29 29 27 26 24 32 43 45 49 45 45 51 45 58 54 58 57 58 56 58 56 52
35 39 28 26 24 28 31 29 28 27 28 29 28 23 22 28 39 44 47 46 47 44 50 52 52 53 61 62 62 58 57 59
34 37 30 28 26 28 28 28 26 26 26 29 31 25 15 21 34 42 42 42 43 46 49 49 54 56 60 60 61 64 60 60
35 39 32 31 28 26 25 24 24 24 24 28 31 26 18 13 24 34 38 35 39 38 51 54 52 57 59 58 62 62 62 62
37 35 33 34 30 29 25 25 27 26 26 23 27 27 17 14 14 27 31 37 38 39 43 51 55 56 58 62 63 63 70 70
40 31 31 30 26 29 23 24 25 26 28 22 22 25 19 14 12 24 28 29 35 42 43 47 47 50 49 57 61 58 60 66
35 30 31 30 27 29 27 22 23 27 27 25 20 21 19 15 16 19 25 27 29 41 42 45 49 51 53 53 54 56 56 60
37 32 29 32 28 31 28 23 27 27 27 25 19 17 18 15 18 23 27 30 31 35 40 44 43 44 49 52 51 51 49 53
39 33 35 33 29 29 32 33 30 30 28 24 22 17 16 16 14 17 26 33 38 37 39 42 42 45 43 46 50 53 54 52
44 40 38 36 32 30 36 36 32 30 29 29 25 20 20 17 15 13 15 25 33 38 41 43 48 50 51 51 49 53 55 59
53 47 39 34 30 32 35 36 38 33 30 30 31 26 23 22 20 17 15 14 21 33 36 41 46 49 52 54 56 57 57 56
45 48 46 37 35 36 35 37 41 40 36 33 33 33 30 26 22 25 22 19 18 18 22 31 41 47 49 49 51 54 51 52
49 44 42 43 43 36 38 42 44 41 40 39 38 39 36 36 29 27 29 29 27 26 24 23 24 25 28 35 42 46 47 48
50 47 41 41 44 41 41 39 36 36 35 33 34 39 42 43 42 37 38 33 35 35 33 33 32 31 31 31 31 31 33 34
51 52 56 53 50 43 46 47 45 39 35 37 37 39 40 44 43 45 40 42 42 41 39 40 42 43 42 41 40 40 42 43

GFSFLT1_250_spd_102.txt.gz
Wind_Speed
63 61 60 49 50 49 43 37 38 35 31 33 35 34 27 25 27 27 24 32 32 44 46 50 52 53 42 43 40 34 34 36
64 57 53 47 52 50 49 35 38 32 31 32 33 33 26 27 29 32 25 34 39 51 51 52 52 52 47 46 38 39 44 43
57 57 47 50 52 49 47 35 39 31 30 30 32 30 25 25 28 32 27 31 47 45 52 55 53 54 49 49 48 48 42 38
57 53 47 50 53 52 46 35 39 29 29 29 32 27 25 26 29 33 28 31 49 49 47 55 52 49 51 50 55 54 48 44
62 55 47 51 54 53 44 35 37 28 28 30 27 22 23 27 29 33 28 31 49 52 50 47 59 57 58 56 52 46 51 45
53 52 51 54 56 53 41 36 36 29 26 31 24 22 23 27 28 31 24 30 49 54 54 49 55 65 64 54 58 55 49 52
58 57 56 57 56 50 37 39 35 30 27 30 23 22 24 25 28 30 21 28 48 60 56 49 57 54 56 58 54 51 55 54
64 62 59 55 54 52 36 39 34 31 29 28 22 24 23 25 27 28 21 24 38 60 62 56 57 54 53 53 51 53 53 54
66 62 59 51 52 48 36 39 37 34 32 29 21 20 20 20 24 25 19 22 34 55 61 62 57 55 53 52 52 51 55 56
58 54 52 54 49 48 41 43 39 36 31 28 23 19 20 17 20 24 13 14 24 44 48 53 50 54 55 58 53 54 58 59
57 47 49 45 49 46 43 43 40 33 29 28 22 17 22 19 16 19 14 8 14 27 39 40 47 46 52 53 53 58 54 50
43 45 44 45 45 42 41 41 34 35 26 27 23 20 23 21 15 16 15 14 14 19 28 33 35 42 46 51 51 56 58 58
36 40 39 46 46 41 42 38 36 29 26 26 26 22 23 22 19 18 16 9 17 24 27 28 32 35 43 48 49 46 50 53
36 39 49 50 46 41 41 39 33 31 28 27 33 27 24 21 20 18 18 17 12 11 23 25 29 32 34 39 41 42 44 46
43 48 50 48 43 39 40 39 37 32 33 32 29 27 25 20 22 20 18 21 21 18 14 20 28 29 34 35 39 44 47 50
50 45 45 45 45 45 44 38 35 29 34 31 29 28 28 24 24 23 25 22 24 23 23 20 18 28 33 37 38 39 40 42
49 47 49 49 47 47 44 41 36 32 33 33 33 30 29 28 27 27 25 24 24 27 26 25 25 25 24 28 36 40 43 47
47 51 54 52 46 46 45 43 41 40 38 38 36 35 36 34 31 29 25 22 23 23 26 30 30 31 31 32 32 32 34 37
51 54 54 53 51 51 52 51 47 48 42 40 39 40 40 41 41 39 34 33 31 26 23 24 28 30 33 36 39 40 40 42

GFSFLT1_250_spd_105.txt.gz
Wind_Speed
67 61 56 56 56 56 52 46 42 40 41 39 33 32 30 32 31 29 26 21 22 25 27 33 39 53 48 46 44 45 40 39
72 66 61 57 54 52 50 48 39 40 40 36 34 33 31 32 30 27 23 23 22 26 31 48 49 51 54 53 47 44 38 38
58 66 63 56 54 54 52 45 39 37 41 33 34 34 31 32 31 27 23 26 24 26 35 56 51 51 55 50 47 43 40 39
56 55 55 55 57 56 52 48 42 36 45 35 33 33 32 30 27 25 24 28 30 26 39 57 59 56 55 48 39 48 46 40
59 55 54 54 54 54 52 46 42 35 45 36 32 31 31 28 25 24 25 30 34 27 45 59 62 59 56 54 54 51 47 46
59 55 56 53 55 53 53 47 43 34 42 35 33 29 28 27 25 24 25 30 34 28 52 56 66 57 66 57 55 54 56 53
49 50 51 54 55 55 53 48 45 33 40 34 34 29 26 27 27 28 28 32 33 28 49 61 58 61 64 60 54 56 60 53
46 45 48 51 52 49 52 52 45 36 38 35 34 30 25 23 21 24 26 31 30 29 48 58 62 62 62 68 59 60 55 50
42 43 50 55 57 54 55 53 47 37 37 38 35 33 26 23 18 22 24 28 27 23 43 60 63 64 62 69 66 57 58 49
44 52 56 61 65 62 59 54 48 39 38 41 37 33 30 25 17 22 23 25 24 18 35 61 63 60 61 62 63 60 61 63
51 49 55 57 60 54 55 54 46 41 40 43 38 35 31 23 19 22 22 21 20 20 23 54 70 65 58 55 58 61 61 59
45 46 52 55 55 57 55 55 46 46 43 44 39 36 31 21 19 20 19 18 17 16 19 31 63 65 61 56 52 54 55 57
49 51 57 52 47 47 50 50 45 49 43 42 39 35 29 22 19 18 18 15 15 13 15 23 43 59 65 68 61 58 56 58
55 50 38 39 42 45 46 40 46 45 42 43 40 32 28 28 22 21 19 16 15 14 13 20 29 41 43 51 57 53 56 58
48 34 30 31 33 35 39 42 45 41 43 40 39 33 30 32 27 26 21 21 19 19 15 14 26 31 39 42 44 49 52 56
28 27 21 29 32 37 39 41 40 39 35 38 37 35 34 33 31 26 24 22 21 18 22 20 18 17 33 38 43 45 46 50
38 24 36 26 36 39 40 38 40 39 41 41 42 39 38 36 33 29 31 27 25 23 22 25 24 22 22 21 31 40 43 45
45 50 54 37 39 39 40 39 43 43 44 45 45 42 32 34 34 34 34 32 29 26 23 23 25 28 28 27 25 26 29 37
42 40 41 38 42 45 46 45 44 44 45 47 41 40 38 40 42 42 40 38 37 34 30 28 27 27 24 24 24 25 29 37

GFSFLT1_250_spd_108.txt.gz
Wind_Speed
63 60 56 58 59 58 60 59 58 53 49 47 50 46 39 37 30 31 32 32 28 26 24 19 17 19 21 35 46 40 42 43
68 57 58 60 59 60 59 59 59 52 47 47 47 46 39 38 31 31 32 33 29 25 20 20 25 28 27 43 52 48 46 43
64 60 61 61 57 52 52 55 55 51 48 48 50 47 39 39 33 31 32 33 30 26 20 22 25 36 35 49 53 51 48 47
69 66 61 55 53 53 53 54 53 52 45 48 50 49 39 38 34 31 32 32 29 28 25 22 27 39 48 51 52 51 46 47
70 72 65 58 57 56 56 56 51 52 45 44 48 46 40 37 35 31 33 30 28 30 27 24 30 45 57 51 56 53 54 49
65 62 60 59 61 55 56 57 53 52 48 42 45 46 39 37 35 31 33 29 28 32 31 28 30 48 64 61 57 60 52 47
63 57 57 60 56 58 56 55 53 52 48 43 43 46 38 38 35 30 32 29 31 33 33 33 31 45 69 64 60 60 53 47
56 56 58 54 55 57 54 54 52 50 49 45 43 44 37 38 35 28 27 26 28 31 32 34 32 48 66 65 62 56 62 54
53 57 56 52 54 56 54 52 52 50 47 43 42 41 38 38 36 26 21 19 23 29 31 33 32 45 59 70 60 64 59 62
57 54 52 53 55 58 56 55 53 53 50 45 44 38 41 40 37 27 25 25 22 27 29 28 29 41 60 64 64 63 66 60
65 56 56 56 57 55 56 58 58 60 58 52 46 38 43 43 37 29 28 26 25 25 26 21 25 37 62 63 64 61 69 66
66 62 61 58 53 55 54 59 59 58 59 54 46 42 45 44 37 28 26 23 21 22 22 20 16 30 54 68 64 64 63 71
69 61 59 49 52 54 58 60 60 58 59 53 42 47 47 44 37 28 27 23 19 19 19 17 18 18 47 62 64 67 63 67
63 61 58 56 66 62 59 62 61 59 58 49 44 49 48 45 38 31 29 21 19 18 19 18 17 18 22 59 61 58 61 65
58 56 57 57 55 56 57 54 53 51 45 46 49 48 49 44 38 34 30 25 22 21 21 21 15 19 21 32 57 60 58 58
53 56 60 45 50 43 43 42 41 40 42 43 48 51 47 45 37 34 37 30 24 23 22 19 21 18 22 30 39 46 57 65
56 47 29 19 21 27 26 28 29 32 37 47 49 50 47 45 35 33 37 35 29 27 24 24 20 24 22 22 32 43 48 51
29 21 7 18 17 18 23 26 31 40 48 45 46 45 42 39 36 35 35 37 36 33 31 26 27 27 30 28 25 27 35 45
42 34 19 22 25 16 26 35 40 44 40 38 37 40 40 39 40 40 36 36 37 36 36 33 30 30 29 30 34 33 32 31

GFSFLT1_250_spd_111.txt.gz
Wind_Speed
62 63 62 58 59 58 59 60 58 56 58 59 59 54 57 53 46 45 42 38 35 31 31 30 29 30 27 18 15 17 29 48
71 67 62 63 63 62 62 61 60 60 59 54 56 51 53 55 44 44 43 42 36 34 32 29 28 26 25 28 18 18 19 40
74 71 69 65 66 66 62 60 60 59 52 48 50 51 51 53 47 44 43 43 37 35 32 29 27 27 24 27 19 22 28 41
76 74 74 70 70 65 63 61 58 56 57 55 52 50 49 51 48 44 44 42 37 36 32 29 30 28 21 32 27 28 33 43
85 82 78 76 72 66 60 63 65 59 61 60 56 52 49 50 49 43 42 39 35 36 32 31 33 29 22 38 35 34 36 43
79 79 79 73 71 65 61 65 65 61 61 62 59 54 50 49 49 44 42 38 34 37 33 33 34 34 27 43 43 49 42 44
76 77 76 74 72 71 65 61 61 61 62 60 60 56 50 48 49 46 43 38 34 37 34 36 37 35 34 29 55 50 55 46
80 76 77 73 69 66 59 58 60 61 61 57 59 54 50 47 47 47 42 37 34 35 32 34 37 36 35 32 50 56 57 52
79 73 66 60 63 55 55 57 60 60 56 54 54 53 52 49 47 46 41 36 33 31 23 30 34 36 35 32 43 62 63 60
74 65 63 60 51 51 51 56 60 56 56 56 53 53 52 48 47 46 40 37 35 32 28 29 32 34 33 31 42 71 62 61
65 60 57 58 53 54 55 57 56 58 58 57 53 53 50 45 46 47 40 39 37 32 28 32 32 30 33 30 38 65 66 60
64 60 62 55 56 57 61 65 59 58 59 54 54 57 54 51 48 47 42 40 40 33 29 29 29 26 27 27 33 60 66 59
70 70 70 67 63 63 64 63 60 56 54 52 56 55 53 53 52 50 43 42 40 32 29 24 23 23 24 22 26 52 69 60
73 71 72 67 65 63 63 66 61 57 56 59 59 57 52 42 50 50 45 43 38 33 28 23 19 22 22 20 23 44 64 63
76 74 66 65 66 68 67 64 60 58 60 63 63 59 51 43 47 46 46 45 39 33 30 26 22 21 19 21 19 31 56 64
69 67 62 58 58 59 58 57 58 61 58 57 56 52 47 40 41 47 48 46 39 35 32 28 24 22 22 18 20 19 42 60
68 68 59 51 46 45 49 49 55 52 51 50 48 43 44 41 45 49 51 46 38 35 34 30 27 23 23 24 22 24 24 45
51 50 49 43 46 48 37 41 41 38 39 39 39 43 44 45 48 50 50 44 36 34 40 34 29 27 26 26 24 26 28 35
60 55 44 41 37 34 26 27 24 29 26 29 34 39 44 45 46 48 45 39 36 30 32 34 36 33 32 30 26 26 30 32

GFSFLT1_250_spd_114.txt.gz
Wind_Speed
59 56 54 55 53 56 56 57 55 58 59 57 57 56 55 53 54 55 53 49 44 42 39 38 37 36 33 30 29 27 26 21
66 64 61 55 53 56 59 58 58 60 62 60 58 57 57 57 50 51 51 48 46 42 41 40 37 35 34 30 27 29 25 25
71 73 69 62 58 58 60 61 61 63 63 65 60 57 57 54 54 53 53 48 46 41 42 42 37 34 34 30 28 28 31 25
76 77 71 67 69 69 66 64 65 64 64 67 60 58 58 58 57 57 53 51 48 41 40 44 37 32 33 29 28 29 34 23
79 78 69 68 72 73 68 70 70 69 68 65 61 61 61 59 61 56 56 50 49 43 40 44 36 31 33 29 29 28 28 23
84 79 71 68 70 73 70 71 70 68 66 64 62 64 63 61 58 57 55 52 50 43 40 42 37 32 34 30 32 30 33 30
84 80 70 69 71 70 69 71 68 66 66 63 61 62 60 59 59 60 60 52 50 45 41 41 39 34 35 34 32 31 42 39
80 79 67 70 70 67 64 64 65 68 67 62 58 59 61 58 57 56 57 50 50 48 41 41 39 34 35 35 36 39 44 49
83 80 71 66 62 65 63 67 69 70 62 61 57 56 57 54 53 54 53 50 52 49 42 39 37 32 33 34 34 33 41 51
77 72 70 63 65 62 60 64 64 63 61 55 57 55 57 55 54 50 50 49 51 47 44 38 36 30 30 30 31 34 40 38
74 70 63 55 60 63 64 62 61 61 56 57 60 55 54 55 54 48 50 49 50 44 44 40 37 34 34 35 34 32 34 39
63 66 69 70 70 65 67 58 58 56 51 59 60 58 60 57 52 46 48 49 49 44 43 41 38 33 33 34 31 32 31 35
77 72 73 74 76 72 68 54 64 69 53 56 58 63 62 54 48 45 43 49 53 45 44 42 39 32 32 32 29 29 29 31
69 71 72 76 77 77 73 67 68 69 68 69 69 66 63 56 49 47 43 44 52 47 44 44 39 32 30 26 27 25 26 26
59 66 68 64 73 78 76 70 68 70 71 73 71 69 63 60 54 53 48 44 49 46 45 45 39 33 32 27 27 24 22 20
54 52 57 60 62 66 69 72 73 73 75 70 68 68 66 60 54 54 47 48 47 45 45 45 39 36 30 28 23 25 22 17
59 65 67 68 67 67 71 76 78 75 68 68 69 65 61 60 58 56 48 46 43 44 45 45 40 37 30 27 23 21 23 19
69 69 70 69 68 71 69 65 63 60 54 53 56 60 60 60 56 50 43 47 45 46 46 44 40 38 31 30 27 23 20 20
56 57 60 59 55 47 41 44 44 48 50 56 59 53 51 50 47 46 48 51 46 47 46 42 39 38 35 33 30 28 25 21

GFSFLT1_250_spd_117.txt.gz
Wind_Speed
72 69 59 59 56 57 52 51 52 51 54 53 51 47 47 52 53 56 57 54 50 50 48 44 42 41 39 36 31 31 34 33
75 73 71 63 61 57 49 43 48 50 57 56 48 49 52 53 52 57 59 56 53 53 53 45 44 44 40 36 33 32 34 31
78 76 73 72 66 61 56 55 51 50 53 55 53 53 54 60 57 57 57 56 57 54 55 49 44 43 41 37 32 31 34 31
80 78 74 77 71 62 59 61 60 54 56 59 57 54 55 60 59 56 54 53 58 56 57 51 43 41 41 37 31 31 32 31
78 79 77 72 72 63 59 58 57 56 57 55 55 56 60 62 59 57 54 56 57 56 55 52 47 41 42 38 31 31 29 29
81 81 75 74 72 65 62 62 57 58 57 56 54 58 65 64 58 57 55 54 55 54 56 56 46 42 43 41 33 33 32 28
86 87 80 75 72 67 63 63 58 59 59 57 60 60 60 60 59 59 55 54 56 53 53 55 48 40 43 42 34 35 33 30
89 90 83 72 69 66 67 65 66 64 60 60 59 55 57 58 61 57 55 56 55 52 51 54 48 43 44 43 34 35 33 32
91 87 76 71 74 72 69 70 70 63 66 62 60 57 60 61 60 53 54 53 54 52 55 55 47 42 45 44 35 35 34 32
81 80 76 79 77 68 72 68 65 69 70 60 57 57 56 59 54 52 52 53 55 51 55 58 44 40 44 42 35 34 32 30
75 75 74 72 68 70 66 63 62 67 67 59 56 53 54 54 53 51 52 52 52 53 56 58 44 39 44 41 37 35 34 36
67 70 77 78 68 66 67 64 63 60 57 51 52 55 56 49 49 48 51 54 55 57 58 54 45 41 42 39 37 36 35 37
64 72 75 77 69 68 67 66 67 67 63 58 54 53 57 50 51 50 50 53 56 57 53 51 43 41 42 40 36 35 37 37
60 65 69 74 77 79 64 61 57 58 58 62 64 64 60 55 62 60 53 54 61 59 51 49 45 43 45 41 36 35 34 33
49 55 59 70 70 69 64 61 62 64 66 71 70 70 63 64 67 66 64 62 67 61 54 51 46 42 42 39 36 33 33 29
47 49 54 59 63 66 69 70 72 73 72 74 74 67 71 65 69 67 66 66 69 58 55 53 44 39 40 37 38 34 34 33
52 53 57 53 59 69 72 74 76 74 74 73 74 73 74 72 73 71 74 73 72 64 56 51 45 40 41 38 38 34 30 27
55 56 55 54 58 60 63 57 56 59 61 59 61 65 70 74 75 77 79 77 67 59 58 55 46 42 43 41 41 37 33 26
50 50 49 48 55 55 56 59 61 63 63 63 64 68 72 78 82 82 75 64 58 57 55 55 43 45 45 44 42 37 34 30

GFSFLT1_250_spd_120.txt.gz
Wind_Speed
82 79 74 72 68 66 63 61 50 50 52 56 55 52 49 49 47 45 44 46 46 49 51 51 49 46 46 43 44 40 36 34
88 86 81 76 71 67 67 62 57 51 47 51 45 41 45 51 51 48 46 47 47 49 52 51 51 49 48 44 42 40 37 34
90 86 82 77 76 67 66 67 62 56 50 55 46 43 45 49 51 49 47 47 48 52 52 51 52 51 48 45 43 41 36 33
85 85 81 78 78 73 68 69 68 64 56 55 53 49 50 50 51 51 49 47 50 54 52 51 54 52 50 45 41 41 36 32
87 86 80 79 77 74 70 69 69 69 64 58 56 56 56 55 53 49 51 50 53 55 53 52 54 52 49 48 45 41 35 32
87 84 82 76 74 72 71 71 69 72 65 63 58 57 55 56 56 50 48 53 54 54 52 54 52 53 51 47 47 39 32 32
92 86 83 79 74 71 70 71 70 69 67 66 63 60 57 55 54 50 52 53 49 52 53 54 53 53 52 49 48 38 32 32
88 86 83 81 78 73 70 72 70 71 70 72 62 60 54 53 56 52 56 52 52 56 56 53 53 53 53 49 50 39 32 33
88 87 84 80 79 75 74 73 73 70 69 70 69 67 60 54 56 58 58 52 52 55 55 53 55 54 53 50 49 41 33 31
82 82 83 82 80 78 76 76 74 73 72 71 68 65 65 60 62 60 59 52 55 54 51 52 53 54 55 49 52 41 35 29
78 80 83 83 81 80 79 82 80 78 76 74 72 66 60 60 60 61 55 51 53 53 50 53 52 53 53 51 51 41 36 32
75 76 76 80 84 83 80 78 74 79 81 76 70 69 64 60 61 61 52 49 51 52 49 47 50 49 49 49 45 40 36 34
68 70 72 73 75 77 75 74 72 72 73 74 71 66 62 60 62 58 49 48 48 53 53 47 51 51 51 49 47 42 38 35
60 64 67 71 71 72 71 72 71 71 71 67 63 63 64 64 63 54 55 53 48 51 54 58 54 53 52 53 51 44 42 37
45 46 51 56 61 66 69 71 69 75 72 73 69 64 59 61 61 57 54 57 56 57 56 56 58 60 58 57 52 45 42 38
41 43 44 47 51 53 55 58 61 65 69 68 67 64 62 56 55 54 59 62 60 60 61 62 66 62 59 60 54 47 41 39
42 42 40 40 43 47 52 58 61 63 71 68 71 70 59 61 63 63 66 68 66 64 66 63 64 63 63 61 58 49 39 38
49 43 42 43 43 45 47 48 50 56 66 65 64 63 65 67 67 68 68 74 73 70 71 70 68 63 66 66 59 50 41 39
46 43 45 48 49 48 47 48 50 53 66 71 65 67 71 70 75 78 75 66 66 68 69 66 67 68 67 69 53 48 43 42

GFSFLT1_250_spd_126.txt.gz
Wind_Speed
92 89 88 87 82 74 70 74 71 66 60 62 63 59 57 57 52 54 52 52 51 50 49 48 43 40 41 42 43 42 42 44
103 101 94 92 91 86 78 80 81 76 69 68 67 63 63 61 58 53 53 56 56 52 52 47 41 42 43 42 45 42 44 44
107 105 100 95 94 90 85 80 84 79 73 71 69 71 66 62 60 56 54 55 57 50 50 47 46 46 41 43 45 47 45 46
110 105 104 102 95 92 86 82 84 82 78 74 73 71 70 64 60 57 56 55 48 50 53 49 48 47 44 49 48 48 47 48
107 104 96 94 93 93 90 84 81 78 76 71 71 70 71 66 60 56 53 52 51 52 54 56 47 48 52 52 49 51 51 49
113 106 95 95 93 89 89 85 78 77 77 75 71 69 73 66 58 52 39 45 59 58 57 55 57 54 56 55 56 53 50 45
99 91 95 94 86 88 87 84 80 77 78 75 70 68 71 64 62 57 44 56 72 62 58 60 60 59 60 56 50 47 48 47
85 87 88 87 83 76 79 83 82 79 77 75 67 67 66 68 65 67 53 49 53 63 66 65 60 56 54 48 47 50 50 48
70 74 75 77 74 74 76 83 83 78 76 70 64 67 66 69 66 70 68 49 59 60 58 60 63 63 60 61 59 52 54 51
60 64 63 65 68 71 71 70 63 64 62 62 65 66 70 72 69 69 73 76 70 72 72 73 76 72 68 66 61 57 57 55
53 55 60 65 69 70 72 72 69 66 65 64 65 68 71 75 77 73 72 76 77 78 82 84 78 72 72 68 63 57 53 48
48 51 55 60 66 69 68 70 68 67 68 68 70 72 73 75 77 79 79 77 82 82 83 82 79 74 70 67 62 54 51 48
46 48 51 59 62 63 63 65 67 68 70 70 71 72 76 77 80 82 83 83 83 82 82 78 70 67 70 68 59 53 50 49
48 52 56 59 61 60 62 66 69 72 73 73 72 76 78 80 81 82 82 82 81 79 80 79 75 72 71 70 59 52 56 51
46 51 59 56 59 63 68 67 73 76 76 76 75 77 79 80 82 85 83 82 82 82 80 78 77 73 71 67 62 60 59 57
46 54 51 49 50 59 71 73 76 71 74 78 77 82 82 83 85 83 83 83 82 84 83 80 79 77 73 71 68 65 63 63
38 43 39 37 50 54 62 68 68 67 71 75 78 83 84 80 79 78 77 77 77 78 79 75 71 68 67 67 66 67 66 64
34 37 47 42 44 51 54 60 63 65 68 73 78 75 71 70 69 70 70 69 67 68 64 66 59 60 62 63 65 70 71 69
34 30 53 57 63 57 49 53 57 59 61 62 63 63 62 61 61 61 61 61 61 62 61 62 58 59 56 54 51 53 57 58